GFSCGP_prec_radar_054.txt.gz
Reflectivity
-20 -20 -20 -20 -20 -20 -20 -20 -20 -20 -2 -20 -20 -20 -20 -20 -20 -20 -20 -20 -20 -20 -20 -20 -20 -20 -20 -20 -20 -20 -20 -20 -20 -20 -20 -20 -20 -20 -20 -20 -17 -20 -20 -20
-20 -20 -20 -20 -20 -20 -20 -20 -20 -20 -20 -20 -20 -20 -20 -20 -20 -20 -20 -20 -20 -20 -20 -20 -20 -20 -20 -20 -20 -20 -20 -20 -20 -20 -20 -20 -20 -20 -15 26 -17 -20 -20 -20
-20 -20 -20 -20 -20 -20 -20 -20 -20 -20 -20 -20 -20 -20 -20 -20 -20 -20 -20 -20 -20 -20 -20 -20 -20 -20 -20 -20 -20 -20 -20 -20 -20 -20 -20 -20 -20 3 -11 -13 -20 -20 -20 -20
-20 -20 -20 -20 -20 -20 -20 -20 -20 -20 -20 -20 -20 -20 -20 -20 -20 -20 -20 -20 -20 -20 -20 -20 -20 -20 -20 -20 -20 -20 -20 -20 -20 -20 -20 -20 -20 -20 7 -8 -20 -20 -20 -20
-20 -20 -20 -20 -20 -20 -20 -20 -20 -20 -20 -20 -20 -20 -20 -20 -20 -20 -20 -20 -20 -20 -20 -20 -20 -20 -20 -20 -20 -20 -20 -20 8 -20 -20 -20 -17 20 20 23 -20 -20 -20 -20
-20 -20 -20 -20 -20 -20 -20 -20 -20 -20 -20 -20 -20 -20 -20 -20 -20 -20 -20 -20 -20 -20 -20 -20 -20 -20 -20 -20 -20 -20 -20 -20 -20 -20 -19 -20 -19 -2 25 9 -20 -20 -20 -20
-20 -20 -20 -20 -20 -20 -20 -20 -20 -20 -20 -20 -20 -20 -20 -20 -20 -20 -20 -20 -20 -20 -20 -20 -20 -20 -20 -20 -20 -20 -20 -20 -20 22 10 -19 6 21 6 11 -20 -20 -20 -20
-20 -20 -20 -20 -20 -20 -20 -20 -20 -20 -20 -20 -20 -20 -20 -20 -20 -20 -20 -20 -20 -20 -20 -20 -20 -20 -20 -20 -20 -20 -20 -20 -20 26 28 -15 26 -20 -5 -20 -20 -20 -20 -20
-20 -20 -20 -20 -20 -20 -20 -20 -20 -20 -20 -20 -20 -20 -20 -20 -20 -20 -20 -20 -20 -20 -20 -20 -20 -20 -20 -20 -20 -20 -16 -20 -20 25 27 -1 22 -20 -20 -20 -20 -20 -20 -20
-20 -20 -20 -20 -20 -20 -20 -20 -20 -20 -20 -20 -20 -20 -20 -20 -20 -20 -20 -20 -20 -20 -20 -20 -20 -20 -20 -20 -20 -20 -20 -20 -20 28 15 21 22 -20 -20 -20 -19 -6 6 -14
-20 -20 -20 -20 -20 -20 -20 -20 -20 -20 -20 -20 -20 -20 -20 -20 -20 -20 -20 -20 -20 -20 -20 -20 -20 -20 -20 -20 -20 -20 -20 -20 14 8 -20 5 -2 -20 -20 2 13 9 12 -20
-20 -20 -20 -20 -20 -20 -20 -20 -20 -20 -20 -20 -20 -20 -20 -20 -20 -20 -20 -20 -20 -20 -20 -20 -20 -20 -20 -20 -20 -20 -20 -20 -14 -18 16 10 -20 3 27 23 24 -16 -3 15
-20 -20 -20 -20 -20 -20 -20 -20 -20 -20 -20 -20 -20 -20 -20 -20 -20 -20 -20 -20 -20 -20 -20 -20 -20 -20 -20 -20 -20 -20 -20 7 -18 24 29 -9 22 24 25 24 14 3 -20 5
-20 -20 -20 -20 -20 -20 -20 -20 -20 -20 -20 -20 -20 -20 -20 -20 -20 -20 -20 -20 -20 -20 -20 -20 -20 -20 -20 -20 -20 1 -20 -18 26 26 27 28 26 25 20 13 -19 -4 -15 17
-20 -20 -20 -20 -20 -20 -20 -20 -20 -20 -20 -20 -20 -20 -20 -20 -20 -20 -20 -20 -20 -20 -20 -20 -20 -20 -20 -20 -20 14 -20 -20 26 -10 21 24 25 17 13 -20 -13 -20 9 30
-20 -20 -20 -20 -20 -20 -20 -20 -20 -20 -20 -20 -20 -20 -20 -20 -20 -20 -20 -20 -20 -20 -20 -20 -20 -20 -20 -20 -20 -19 19 -20 8 -17 -20 -5 11 12 -20 -20 -10 24 16 -10
-20 -20 -20 -20 -20 -20 -20 -20 -20 -20 -20 -20 -20 -20 -20 -20 -20 -20 -20 -20 -20 -20 -20 -20 -20 -20 -20 -20 -20 -20 -20 -20 -20 -20 -20 -20 4 12 -20 7 19 -8 -16 6
-20 -20 -20 -20 -20 -20 -20 -20 -20 -20 -20 -20 -20 -20 -20 -20 -20 -20 -20 -20 -20 -20 -20 -20 -20 -20 -20 -20 -20 -20 -20 -20 -20 -20 -20 -2 -6 -17 -5 22 11 -1 21 20
-20 -20 -20 -20 -20 -20 -20 -20 -20 -20 -20 -20 -20 -20 -20 -20 -20 -20 -20 -20 -20 -20 -20 -20 -20 -20 -20 -20 -20 -20 -20 -20 -20 -20 -20 -18 -4 2 9 15 13 35 30 6
-20 -20 -20 -20 -20 -20 -20 -20 -20 -20 -20 -20 -20 -20 -20 -20 -20 -20 -20 -20 -20 -20 -20 -20 -20 -20 -20 -20 -20 -20 -20 -20 -20 -20 -19 -14 -17 7 31 24 2 2 -20 -20
-20 -20 -20 -20 -20 -20 -20 -20 -20 -20 -20 -20 -20 -20 -20 -20 -20 -20 -20 -20 -20 -20 -20 -20 -20 -20 -20 -20 -20 -20 -20 -20 -20 -20 -17 25 15 -8 -20 -20 -20 -20 -20 -20
-20 -20 -20 -20 -20 -20 -20 -20 -20 -20 -20 -20 -20 -20 -20 -20 -20 -20 -20 -20 -20 -20 -20 -20 -20 -20 -20 -20 -20 -20 -20 -20 -18 -9 -17 -20 -20 -20 -20 -20 -20 -20 -20 -20
-20 -20 -20 -20 -20 -20 -20 -20 -20 -20 -20 -20 -20 -20 -20 -20 -20 -20 -20 -20 -20 -20 -20 -20 -20 -20 -20 -20 -20 -20 -20 -20 -20 -20 -20 -20 -20 -20 -20 -20 -20 -20 -20 -20
-20 -20 -20 -20 -20 -20 -20 -20 -20 -20 -20 -20 -20 -20 -20 -20 -20 -20 -20 -20 -20 -20 -20 -20 -20 -20 -20 -20 -20 -20 -20 -20 -20 -20 -20 -20 -20 -20 -20 -20 -20 -20 -20 -20
-20 -20 -20 -20 -20 -20 -20 -20 -20 -20 -20 -20 -20 -20 -20 -20 -20 -20 -20 -20 -20 -20 -20 -20 -20 -20 -20 -20 -20 -20 -20 -20 -20 -20 -20 -20 -20 -20 -20 -20 -20 -20 -20 -20
-20 -20 -20 -20 6 14 -2 -20 -20 -20 -20 -20 -20 -20 -20 -20 -20 -20 -20 -20 -20 -20 -20 -20 -20 -20 -20 -20 -20 -20 -20 -20 -20 -20 -20 -20 -20 -20 -20 -20 -20 -20 -20 -20

GFSCGP_prec_radar_057.txt.gz
Reflectivity
-20 -20 -20 -20 -20 -20 -20 -20 -20 -20 -20 -20 -20 -20 -20 -20 -20 -20 -20 -20 -20 -20 -20 -20 -20 -20 -20 -20 -20 -20 -20 -20 -20 -20 -20 -20 -20 -20 -20 -20 30 -20 5 -20
-20 -20 -20 -20 -20 -20 -20 -20 -20 -20 -20 -20 -20 -20 -20 -17 -14 -18 -8 -20 -20 -20 -20 -20 -20 -20 -20 -20 -20 -20 -20 -20 -20 -20 -20 -20 -20 -20 -20 -20 -7 27 -20 -20
-20 -20 -20 -20 -20 -20 -20 -20 -20 -20 -20 -20 -20 -20 -20 -20 -12 -17 -20 -20 -20 -20 -20 -20 -20 -20 -20 -20 -20 -20 -20 -20 -20 -20 -20 -20 -20 -20 -20 -20 24 -20 -20 -20
-20 -20 -20 -20 -20 -20 -20 -20 -20 -20 -20 -20 -20 -20 -20 -20 -20 -20 -20 -20 -20 -20 -20 -20 -20 -20 -20 -20 -20 -20 -20 -20 -20 -20 -20 -20 -20 -20 -20 4 24 14 -20 -8
-20 -20 -20 -20 -20 -20 -20 -20 -20 -20 -20 -20 -20 -20 -20 -20 -20 -20 -20 -20 -20 -20 -20 -20 -20 -20 -20 -20 -20 -20 -20 -20 -20 -20 -20 -20 -20 -20 -20 20 18 16 19 -20
-20 -20 -20 -20 -20 -20 -20 -20 -20 -20 -20 -20 -20 -20 -20 -20 -20 -20 -20 -20 -20 -20 -20 -20 -20 -20 -20 -20 -20 -20 -20 -20 -20 -20 -20 -20 -3 -19 -12 6 16 -3 7 -20
-20 -20 -20 -20 -20 -20 -20 -20 -20 -20 -20 -20 -20 -20 -20 -20 -20 -20 -20 -20 -20 -20 -20 -20 -20 -20 -20 -20 -20 -20 -20 -20 -20 -20 -20 10 5 23 -20 -20 -20 9 -2 10
-20 -20 -20 -20 -20 -20 -20 -20 -20 -20 -20 -20 -20 -20 -20 -20 -20 -20 -20 -20 -20 -20 -20 -20 -20 -20 -20 -20 -20 -20 -20 -20 -20 -20 -20 19 30 19 -14 -20 -18 21 -19 9
-20 -20 -20 -20 -20 -20 -20 -20 -20 -20 -20 -20 -20 -20 -20 -20 -20 -20 -20 -20 -20 -20 -20 -20 -20 -20 -20 -20 -20 -20 -20 -20 -20 -20 -20 26 29 27 10 -20 24 13 -20 -20
-20 -20 -20 -20 -20 -20 -20 -20 -20 -20 -20 -20 -20 -20 -20 -20 -20 -20 -20 -20 -20 -20 -20 -20 -20 -20 -20 -20 -20 -20 -20 -20 -20 -20 -9 24 25 2 3 -18 10 -20 -20 -20
-20 -20 -20 -20 -20 -20 -20 -20 -20 -20 -20 -20 -20 -20 -20 -20 -20 -20 -20 -20 -20 -20 -20 -20 -20 -20 -20 -20 -20 -20 -20 -20 -20 -20 -12 8 25 23 23 5 13 -15 19 34
-20 -20 -20 -20 -20 -20 -20 -20 -20 -20 -20 -20 -20 -20 -20 -20 -20 -20 -20 -20 -20 -20 -20 -20 -20 -20 -20 -20 -20 -20 -20 -20 -20 -20 -4 24 25 23 26 21 13 13 8 38
-20 -20 -20 -20 -20 -20 -20 -20 -20 -20 -20 -20 -20 -20 -20 -20 -20 -20 -20 -20 -20 -20 -20 -20 -20 -20 -20 -20 -20 -20 -20 -20 -20 -19 -20 -11 22 27 17 20 23 24 39 29
-20 -20 -20 -20 -20 -20 -20 -20 -20 -20 -20 -20 -20 -20 -20 -20 -20 -20 -20 -20 -20 -20 -20 -20 -20 -20 -20 -20 -20 -20 -20 -20 -10 5 -17 8 25 19 24 26 28 13 17 12
-20 -20 -20 -20 -20 -20 -20 -20 -20 -20 -20 -20 -20 -20 -20 -20 -20 -20 -20 -20 -20 -20 -20 -20 -20 -20 -20 -20 -20 -20 -20 -20 -20 8 8 6 -12 -4 15 15 -3 -18 -12 2
-20 -20 -20 -20 -20 -20 -20 -20 -20 -20 -20 -20 -20 -20 -20 -20 -20 -20 -20 -20 -20 -20 -20 -20 -20 -20 -20 -20 -20 -20 -20 -3 11 -20 -20 -20 -20 -20 -20 -20 -20 17 -20 -6
-20 -20 -20 -20 -20 -20 -20 -20 -20 -20 -20 -20 -20 -20 -20 -20 -20 -20 -20 -20 -20 -20 -20 -20 -20 -20 -20 -20 -20 -20 -20 -20 -20 -20 -20 -20 -20 -20 -20 -1 12 -20 2 16
-20 -20 -20 -20 -20 -20 -20 -20 -20 -20 -20 -20 -20 -20 -20 -20 -20 -20 -20 -20 -20 -20 -20 -20 -20 -20 -20 -20 -20 -20 -20 -20 -20 -20 -20 -20 -20 -19 -8 -19 5 25 13 29
-20 -20 -20 -20 -20 -20 -20 -20 -20 -20 -20 -20 -20 -20 -20 -20 -20 -20 -20 -20 -20 -20 -20 -20 -20 -20 -20 -20 -20 -20 -20 -20 -20 -20 -20 -20 -19 -12 -13 -20 16 25 9 2
-20 -20 -20 -20 -20 -20 -20 -20 -20 -20 -20 -20 -20 -20 -20 -20 -20 -20 -20 -20 -20 -20 -20 -20 -20 -20 -20 -20 -20 -20 -20 -20 -20 -20 -20 -20 -20 0 21 20 -11 -20 -20 -20
-20 -20 -20 -20 -20 -20 -20 -20 -20 -20 -20 -20 -20 -20 -20 -20 -20 -20 -20 -20 -20 -20 -20 -20 -20 -20 -20 -20 -20 -20 -20 -20 -20 -20 -16 -20 -14 -18 -20 -20 -20 -20 -20 -20
-20 -20 -20 -20 -20 -20 -20 -20 -20 -20 -20 -20 -20 -20 -20 -20 -20 -20 -20 -20 -20 -20 -20 -20 -20 -20 -20 -20 -20 -20 -20 -20 -20 -20 -17 -20 -20 -20 -20 -20 -20 -20 -20 -20
-20 -20 -13 -20 -20 -20 -20 -20 -20 -20 -20 -20 -20 -20 -20 -20 -20 -20 -20 -20 -20 -20 -20 -20 -20 -20 -20 -20 -20 -20 -20 -20 -20 -20 -20 -20 -20 -20 -20 -20 -20 -20 -20 -20
-20 -17 -20 -20 -20 -20 -20 -20 -20 -20 -20 -20 -20 -20 -20 -20 -20 -20 -20 -20 -20 -20 -20 -20 -20 -20 -20 -20 -20 -20 -20 -20 -20 -20 -20 -20 -20 -20 -20 -20 -20 -20 -20 -20
-20 -2 -8 -20 -20 -20 -20 -20 -20 -20 -20 -20 -20 -20 -20 -20 -20 -20 -20 -20 -20 -20 -20 -20 -20 -20 -20 -20 -20 -20 -20 -20 -20 -20 -20 -20 -20 -20 -20 -20 -20 -20 -20 -20
-20 -20 -20 -20 5 1 -20 -20 -20 -20 -20 -20 -20 -20 -20 -20 -20 -20 -20 -20 -20 -20 -20 -20 -20 -20 -20 -20 -20 -20 -20 -20 -20 -20 -20 -20 -20 -20 -20 -20 -20 -20 -20 -20

GFSCGP_prec_radar_060.txt.gz
Reflectivity
-20 -20 -20 -20 -20 -20 -20 -20 -20 -20 -20 -20 -20 -20 -20 -20 -20 -20 -20 -20 -20 -20 -20 -20 -20 -20 -20 -20 -20 -20 -20 -20 -3 -20 -20 -20 -20 -20 -20 -20 -20 -20 -20 -13
-20 -20 -20 -20 -20 -20 -20 -20 -20 -20 -20 -20 -19 -20 -20 -20 -20 -20 -20 -15 -20 -20 -20 -20 -20 -20 -20 -20 -20 -20 -20 -20 -20 -20 -20 -20 -20 -20 -20 -20 -20 -20 -4 23
-20 -20 -20 -20 -20 -20 -20 -20 -20 -20 -20 -20 -20 -20 -20 -20 -20 -19 -5 -19 -20 -20 -20 -20 -20 -20 -20 -20 -20 -20 -20 -20 -20 -20 -20 -20 -20 -20 -20 -20 -5 8 25 20
-20 -20 -20 -20 -20 -20 -20 -20 -20 -20 -20 2 -20 10 -20 -20 -20 -20 -20 -20 -20 -20 -20 -20 -20 -20 -20 -20 -20 -20 -20 -20 -20 -20 -20 -20 -20 -20 -20 -20 -3 -13 12 12
-20 -20 -20 -20 -20 -20 -20 -20 -20 -20 -20 -20 -20 -20 -0 -20 -20 -20 -20 -20 -20 -20 -20 -20 -20 -20 -20 -20 -20 -20 -20 -20 -20 -20 -20 -20 -20 -20 -20 -3 -18 16 25 22
-20 -20 -20 -20 -20 -20 -20 -20 -20 -20 -20 -20 -20 -20 -20 -20 -20 -20 -20 -20 -20 -20 -20 -20 -20 -20 -20 -20 -20 -20 -20 -20 -20 -20 -20 -20 -20 -20 -15 -14 -19 -20 -12 12
-20 -20 -20 -20 -20 -20 -20 -20 -6 3 -20 -20 -20 -20 -20 -20 -20 -20 -20 -20 -20 -20 -20 -20 -20 -20 -20 -20 -20 -20 -20 -20 -20 -20 -20 -20 -18 -6 7 22 15 -6 -20 -20
-20 -20 -20 -20 -20 -20 -20 -20 -20 -19 -20 -20 -20 -20 -20 -20 -20 -20 -20 -20 -20 -20 -20 -20 -20 -20 -20 -20 -20 -20 -20 -20 -20 -20 -20 -20 -19 10 -3 17 36 16 -14 -20
-20 -20 -20 -20 -20 -20 -20 -20 -20 -20 -20 -20 -20 -20 -20 -20 -20 -20 -20 -20 -20 -20 -20 -20 -20 -20 -20 -20 -20 -20 -20 -20 -20 -20 -20 -18 -1 -13 -19 14 15 -17 -20 -20
-20 -20 -20 -20 -20 -20 -20 -20 -20 -20 -20 -20 -20 -20 -20 -20 -20 -20 -20 -20 -20 -20 -20 -20 -20 -20 -20 -20 -20 -20 -20 -20 -20 -20 -20 -11 11 -3 -6 18 19 -16 3 17
-20 -20 -20 -20 -20 -20 -20 -20 -20 -20 -20 -20 -20 -20 -20 -20 -20 -20 -20 -20 -20 -20 -20 -20 -20 -20 -20 -20 -20 -20 -20 -20 -20 -20 -20 -20 -20 -16 0 1 9 19 33 22
-20 -20 -20 -20 -20 -20 -20 -20 -20 -20 -20 -20 -20 -20 -20 -20 -20 -20 -20 -20 -20 -20 -20 -20 -20 -20 -20 -20 -20 -20 -20 -20 -20 -20 -20 -20 -20 2 -12 4 -18 24 5 -4
-20 -20 -20 -20 -20 -20 -20 -20 -20 -20 -20 -20 -20 -20 -20 -20 -20 -20 -20 -20 -20 -20 -20 -20 -20 -20 -20 -20 -20 -20 -20 -20 -20 -20 -19 11 0 -10 -12 -20 -18 3 28 35
-20 -20 -20 -20 -20 -20 -20 -20 -20 -20 -20 -20 -20 -20 -20 -20 -20 -20 -20 -20 -20 -20 -20 -20 -20 -20 -20 -20 -20 -20 -20 -20 -20 -20 1 10 5 12 0 -15 -8 -1 14 -3
-20 -20 -20 -20 -20 -20 -20 -20 -20 -20 -20 -20 -20 -20 -20 -20 -20 -20 -20 -20 -20 -20 -20 -20 -20 -20 -20 -20 -20 -20 -8 4 9 7 8 12 10 -12 -14 -8 4 9 -6 -20
-20 -20 -20 -20 -20 -20 -20 -20 -20 -20 -20 -20 -20 -20 -20 -20 -20 -20 -20 -20 -20 -20 -20 -20 -20 -20 -20 -20 -20 -20 -19 -3 -17 -19 -20 -18 -20 -20 -20 -20 -20 -10 -20 -20
-20 -20 -20 -20 -20 -20 -20 -20 -20 -20 -20 -20 -20 -20 -20 -20 -20 -20 -20 -20 -20 -20 -20 -20 -20 -20 -20 -20 -20 -20 -20 -20 -20 -20 -20 -20 -20 -20 -20 -20 -20 -20 -20 -20
-20 -20 -20 -20 -20 -20 -15 -20 -20 -20 -20 -20 -20 -20 -20 -20 -20 -20 -20 -20 -20 -20 -20 -20 -20 -20 -20 -20 -20 -20 -20 -20 -20 -20 -20 -20 -20 -20 -20 -20 -20 -16 -19 -6
-20 -20 -20 -20 -20 -20 -19 -20 -20 -20 -20 -20 -20 -20 -20 -20 -20 -20 -20 -20 -20 -20 -20 -20 -20 -20 -20 -20 -20 -20 -20 -20 -20 -20 -20 -20 -20 -20 -20 -20 -20 -20 -19 -16
-20 -20 -20 -20 -20 -20 -13 -20 -20 -20 -20 -20 -20 -20 -20 -20 -20 -20 -20 -20 -20 -20 -20 -20 -20 -20 -20 -20 -20 -20 -20 -20 -20 -20 -20 -20 -20 -20 -20 -20 -20 -20 -20 -20
-20 -20 -20 -20 -20 -20 -20 -20 -20 -20 -17 -20 -20 -20 -20 -20 -20 -20 -20 -20 -20 -20 -20 -20 -20 -20 -20 -20 -20 -20 -20 -20 -20 -20 -20 -20 -20 -20 -20 -20 -20 -20 -20 -20
-20 -20 -20 -20 -20 -20 -11 -15 -20 -20 -20 -20 -20 -20 -20 -20 -20 -20 -20 -20 -20 -20 -20 -20 -20 -20 -20 -20 -20 -20 -20 -20 -20 -20 -20 -20 -20 -20 -20 -20 -20 -20 -20 -20
-20 -20 -20 -20 -20 -20 -20 -20 -20 -20 -20 -20 -20 -20 -20 -20 -20 -20 -20 -20 -20 -20 -20 -20 -20 -20 -20 -20 -20 -20 -20 -20 -20 -20 -20 -20 -20 -20 -20 -20 -20 -20 -20 -20
-20 -20 15 -6 -20 -20 -20 -20 -20 -20 -20 -20 -20 -20 -20 -20 -20 -20 -20 -20 -20 -20 -20 -20 -20 -20 -20 -20 -20 -20 -20 -20 -20 -20 -20 -20 -20 -20 -20 -20 -20 -20 -20 -20
-19 -20 -20 -20 -20 -20 -20 -20 -20 -20 -20 -20 -20 -20 -20 -20 -20 -20 -20 -20 -20 -20 -20 -20 -20 -20 -20 -20 -20 -20 -20 -20 -20 -20 -20 -20 -20 -20 -20 -20 -20 -20 -20 -20
-20 -20 -20 -20 1 -9 -20 -20 -20 -20 -20 -20 -20 -20 -20 -20 -20 -20 -20 -20 -20 -20 -20 -20 -20 -20 -20 -20 -20 -20 -20 -20 -20 -20 -20 -20 -20 -20 -20 -20 -20 -20 -20 -20

GFSCGP_prec_radar_063.txt.gz
Reflectivity
-20 -20 -20 -20 -20 -20 -20 -20 -20 -6 -20 -20 -14 -1 12 -4 -20 -20 -20 -20 -20 -20 -20 -20 -20 -20 -20 -20 -20 -20 -20 -20 -20 -20 -20 -20 -20 -20 -20 -20 -20 -10 6 -20
-20 -20 -20 -20 -20 -20 -20 -20 -19 -13 -20 -20 -3 -16 6 -2 -20 -20 -20 -20 -20 -20 -20 -20 -20 -20 -20 -20 -20 -20 -20 -20 -20 -20 -20 -20 -20 -20 -20 -20 -20 -11 -7 -13
-20 -20 -20 -20 -20 -20 -20 -17 -9 -20 12 -20 -20 -20 2 -20 -20 -20 -20 -20 -4 -20 -20 -20 -20 -20 -20 -20 -20 -20 -20 -20 -20 -20 -20 -20 -20 -20 -20 -20 -20 -20 -4 -20
-20 -20 -20 -20 -20 -20 1 -15 -20 -20 -20 5 14 7 11 -0 -20 -20 -20 -20 -20 -20 -20 -20 -20 -20 -20 -20 -20 -20 -20 -20 -20 -20 -20 -20 -20 -20 -20 -20 -20 -20 -16 -20
-20 -20 -20 -20 -20 -20 -20 -14 -20 -20 -20 -11 -8 -20 5 -20 -20 -20 -20 -20 -20 -20 -20 -20 -20 -20 -20 -20 -20 -20 -20 -20 -20 -20 -20 -20 -20 -20 -20 -20 -20 -20 -12 -20
-20 -20 -20 -20 -20 -20 -20 -20 -20 -20 -20 -20 10 -19 9 17 -20 -20 -20 -20 -20 -20 -20 -20 -20 -20 -20 -20 -20 -20 -20 -20 -20 -20 -20 -20 -20 -20 -20 -20 -20 -1 5 -14
-20 -20 -20 -20 -20 -20 -20 -20 -18 -11 -0 -20 7 -20 -1 13 -19 -20 -20 -20 -20 -20 -20 -20 -20 -20 -20 -20 -20 -20 -20 -20 -20 -20 -20 -20 -20 -20 -20 -18 -16 12 22 11
-20 -20 -20 -20 -20 -20 -20 -20 -20 20 6 23 -12 -20 3 -20 -20 -20 -20 -20 -20 -20 -20 -20 -20 -20 -20 -20 -20 -20 -20 -20 -20 -18 -20 -20 -20 -20 -20 -20 18 31 -2 11
-20 -20 -19 -20 -20 -20 -15 -20 0 18 -20 -20 -20 -19 -19 -20 -20 -20 -20 -20 -20 -20 -20 -20 -20 -20 -20 -20 -20 -20 -20 -20 -20 3 3 -9 -2 -2 -2 -19 -20 -20 -12 -6
-20 -20 -20 -20 -20 -20 -15 -17 -20 -20 7 -20 -5 -17 4 -20 -20 -20 -20 -20 -20 -20 -20 -20 -20 -20 -20 -20 -20 -20 -20 -20 -20 -20 -20 -20 -20 -8 -7 -14 -13 4 7 -19
-20 -20 -20 -20 -20 -20 -20 -20 -20 -1 -16 -5 -20 -10 10 -20 -20 -20 -20 -20 -20 -20 -20 -20 -20 -20 -20 -20 -20 -20 -20 -20 -20 -20 -20 -20 8 20 -1 -2 -16 18 23 -11
-20 -20 -20 -20 -20 -20 13 -20 -20 -20 -20 -20 -20 -20 -3 -20 -20 -20 -20 -20 -20 -20 -20 -20 -20 -20 -20 -20 -20 -20 -20 -20 -20 -20 -20 10 -20 -20 16 17 17 26 -18 -20
-20 -20 -20 -20 -20 -20 -20 -20 -20 -20 -20 -4 -2 -20 8 -20 -20 -20 -20 -20 -20 -20 -20 -20 -20 -20 -20 -20 -20 -20 -20 -20 -20 -20 -20 -20 -20 -19 6 10 10 17 6 -6
-20 -20 -20 -20 -20 -20 -20 -20 -14 -20 -20 -20 -20 -20 -7 -16 -16 -20 -20 -20 -20 -20 -20 -20 -20 -20 -20 -20 -20 -20 -20 -20 -20 -20 -20 -20 -11 -5 12 14 15 6 8 5
-20 -20 -20 -20 -20 -20 -20 -20 -20 -10 -20 -20 -20 -20 -20 -9 -20 -20 -17 -20 -20 -20 -20 -20 -20 -20 -20 -20 -20 -20 -20 -20 -20 -20 -6 -12 -19 4 -7 10 -10 -4 -7 -8
-20 -20 -20 -20 -20 -20 -20 -20 -20 -20 -20 -20 -20 -20 -20 -20 -20 -20 -20 -20 -20 -20 -20 -20 -20 -20 -20 -20 -20 -20 -20 -20 -20 -20 5 7 26 -10 -6 -5 -20 -20 -15 -1
-20 -20 -20 -20 -20 -20 -20 -20 -20 -20 -20 -20 -20 -20 -20 -20 -20 -20 -20 -20 -20 -20 -20 -20 -20 -20 -20 -20 -20 -6 -16 -20 -20 12 -20 -20 -20 -20 -20 -20 -20 -20 -20 -20
-20 -20 -20 -20 -20 5 -13 -20 -20 -20 -20 -20 -20 -20 -20 -20 -20 -20 -20 -20 -20 -20 -20 -20 -20 -20 -20 -20 -20 -20 -20 -20 -20 -20 -20 -20 -20 -20 -20 -20 -20 -20 -20 -20
-20 -20 11 10 -20 -20 -20 -20 -20 -20 -20 -20 -20 -20 -20 -20 -20 -20 -20 -20 -20 -20 -20 -20 -20 -20 -20 -20 -20 -20 -20 -20 -20 -20 -20 -20 -20 -20 -20 -20 -20 -20 -20 -20
-20 -20 -20 -20 -20 -20 -10 -16 -20 -20 -20 -20 -20 -20 -20 -20 -20 -20 -20 -20 -20 -20 -20 -20 -20 -20 -20 -20 -20 -20 -20 -20 -20 -20 -20 -20 -20 -20 -20 -20 -20 -20 -20 -20
3 -20 9 -6 -16 -20 -19 -7 -17 -20 -20 -20 -20 -20 -20 -20 -20 -20 -20 -20 -20 -20 -20 -20 -20 -20 -20 -20 -20 -20 -20 -20 -20 -20 -20 -20 -20 -20 -20 -20 -20 -20 -20 -20
-20 -5 -20 11 16 -20 -18 6 -12 -20 -20 -20 -20 -20 -20 -20 -20 -20 -20 -20 -20 -20 -20 -20 -20 -20 -20 -20 -20 -20 -20 -20 -20 -20 -20 -20 -20 -20 -20 -20 -20 -20 -20 -20
29 -8 24 -18 -20 -20 -11 -3 -20 -20 -20 -20 -20 -20 -20 -20 -20 -20 -20 -20 -20 -20 -20 -20 -20 -20 -20 -20 -20 -20 -20 -20 -20 -20 -20 -20 -20 -20 -20 -20 -20 -20 -20 -20
-20 -3 -20 -20 -20 -20 -20 -17 -20 -20 -20 -20 -20 -20 -20 -20 -20 -20 -20 -20 -20 -20 -20 -20 -20 -20 -20 -20 -20 -20 -20 -20 -20 -20 -20 -20 -20 -20 -20 -20 -20 -20 -20 -20
-20 -20 -20 -20 -20 -20 -20 -20 -20 -17 -20 -20 -20 -20 -20 -20 -20 -20 -20 -20 -20 -20 -20 -20 -20 -20 -20 -20 -20 -20 -20 -20 -20 -20 -20 -20 -20 -20 -20 -20 -20 -20 -20 -20
-20 -20 -20 -20 -7 5 5 15 7 -19 -7 -20 -20 -20 -20 -20 -20 -20 -20 -20 -20 -20 -20 -20 -20 -20 -20 -20 -20 -20 -20 -20 -20 -20 -20 -20 -20 -20 -20 -20 -20 -20 -20 -20

GFSCGP_prec_radar_066.txt.gz
Reflectivity
-20 -20 -20 -20 -14 -18 -20 -20 -20 17 6 -20 -20 -20 2 5 33 12 -20 -20 -20 -20 -20 -20 -20 -20 -20 -20 -20 -20 -20 -20 -20 -20 -20 -20 -20 -20 -20 -20 -20 -20 -20 -20
-20 -19 -20 -20 -20 -20 -20 -20 -20 10 -20 -20 -20 -20 22 -20 -20 -20 -20 -20 -20 -20 -20 -20 -20 -20 -20 -20 -20 -20 -20 -20 -20 -20 -20 -20 -20 -20 -20 -20 -20 -18 -12 -20
-20 -20 -20 -20 -20 -20 -20 -20 -18 -16 -20 -20 -20 -20 1 11 -4 -20 -20 -20 -20 -20 -20 -20 -20 -20 -20 -20 -20 -20 -20 -20 -20 -20 -20 -20 -20 -20 -20 -20 -20 -10 -20 -20
-20 -20 -19 -20 -20 -20 -20 -20 -20 -20 -20 -4 -15 -19 -13 -0 -20 -20 -20 -20 -20 -20 -20 -20 -20 -20 -20 -20 -20 -20 -20 -20 -20 -20 -20 -20 -20 -20 -20 -20 -20 -20 -20 -20
-20 -20 -20 -20 -20 -20 -20 -20 -20 -20 -20 -20 -20 -2 11 -20 -19 -20 -20 -20 -20 -20 -20 -20 -20 -20 -20 -20 -20 -20 -20 -20 -20 -20 -20 -20 -20 -20 -20 -20 -20 -15 -5 -20
-20 -20 -20 -20 -20 -20 -20 -20 -20 -20 -20 -20 -20 12 -20 -20 -1 -5 -20 -20 -20 -20 -20 -20 -20 -20 -20 -20 -20 -20 -20 -20 -20 -20 -20 -20 -20 -20 -20 -20 -20 -20 -20 -19
-20 3 -7 -20 -20 -20 -20 -20 -20 -20 -20 -20 5 -20 19 -10 7 6 -20 -20 -20 -20 -20 -20 -20 -20 -20 -20 -20 -20 -20 -20 -20 -20 -20 -20 -20 29 -20 -20 -20 -20 6 13
10 -7 -20 -20 -20 -20 -20 -20 -20 6 14 11 -20 -20 -9 3 -20 -20 -20 -20 -20 -20 -20 -20 -20 -20 -20 -20 -20 -20 -20 -20 -20 -20 -20 -20 -20 -20 -14 -20 -20 -20 -20 -20
-20 -20 -20 -20 -20 -20 1 -18 -20 13 -2 26 11 -5 -20 -20 -20 -20 -20 -20 -20 -20 -20 -20 -20 -20 -20 -20 -20 -20 -20 -20 -20 -20 -20 -12 20 -20 27 4 -20 21 7 -18
-6 -0 -10 -20 -20 -20 -17 -20 -20 -20 24 8 -20 -20 17 -8 -20 -20 -20 -20 -20 -20 -20 -20 -20 -20 -20 -20 -20 -20 -20 -20 -20 -20 -20 -20 -20 -20 -18 4 -10 28 10 -12
-11 15 -18 -20 -20 -20 -20 -20 -20 -20 -20 -12 -20 -7 17 -2 -18 -20 -20 -20 -20 -20 -20 -20 -20 -20 -20 -20 -20 -20 -20 -20 -20 -20 -20 -20 -20 -20 27 21 6 -19 -20 7
-19 -19 12 -20 -20 -20 -20 -20 -20 -20 -20 -20 -20 5 -0 6 -0 -20 -20 -20 -20 -20 -20 -20 -20 -20 22 -20 -20 -20 -20 -20 -20 -20 18 23 37 39 20 -16 25 -17 -11 18
12 -6 4 -11 0 -20 -20 -20 -20 -20 -20 -20 -9 -18 -20 -20 -20 -20 -20 -20 -20 -20 -20 -20 -20 -20 -20 -20 -20 -20 12 13 -1 -1 5 3 38 -8 -20 -20 -20 -10 -1 -1
16 -3 -5 -9 -11 -17 -20 -20 -20 -1 -20 -20 -20 -20 -20 -11 -17 -19 -20 -12 -20 -20 -20 -20 -20 -20 -20 -20 -20 -20 -20 -4 -20 -16 -18 -20 -20 -20 -20 -7 9 9 21 23
22 2 -7 -20 -20 -16 -20 -20 -20 -19 -13 -19 -20 -20 -20 -2 7 -16 -10 -10 -18 -20 -20 -20 -20 -20 -20 -20 -20 -20 -20 -20 32 -13 23 32 25 25 26 11 9 12 22 19
6 -1 -20 -9 -20 16 16 -20 -20 -20 -20 -20 -20 -20 -20 -20 -20 -20 -20 -20 -20 -20 -20 -20 -20 -20 -20 -20 -20 -14 -17 -19 26 -20 -4 29 -16 15 10 24 -16 -20 -2 -20
-6 -14 -19 -20 -20 -20 -12 -20 -20 -20 -20 -20 -20 -20 -20 -20 -20 -20 -19 -19 -20 -20 -20 -20 -20 -20 -18 16 -20 -20 -20 -20 -18 -2 -13 12 14 -2 -13 -20 -20 -20 -17 -20
-7 -20 1 -11 -20 -20 -20 -20 -20 -20 -20 -20 -20 -20 -20 -20 -20 -15 -20 -20 -20 -20 -20 -20 -7 2 -20 -20 -20 -20 -15 6 10 -13 -15 -20 -20 -20 -20 -20 -20 -20 -20 -20
5 -15 -0 -3 5 -20 -20 -20 -20 -20 -20 -20 -20 -20 -20 -20 -20 -20 -20 -20 -20 -20 -20 -20 -20 -20 -20 -20 -20 -20 -20 -20 -20 -20 -20 -20 -20 -20 -20 -20 -20 -20 -20 -20
8 -9 18 -19 -0 -4 -20 -20 -20 -20 -20 -20 -20 -20 -20 -20 -20 -20 -20 -20 -20 -20 -20 -20 -20 -20 -20 -20 -20 -20 -20 -20 -20 -20 -20 -20 -20 -20 -20 -20 -20 -20 -20 -20
8 15 15 9 -3 -16 -20 -18 -20 -20 -20 -20 -20 -2 -20 -20 -20 -20 -20 -20 -20 -20 -20 -20 -20 -20 -20 -20 -20 -20 -20 -20 -20 -20 -20 -20 -20 -20 -20 -20 -20 -20 -20 -20
18 11 -8 13 13 4 -19 0 -14 -13 -0 -20 -20 -20 -20 -20 -20 -20 -20 -20 -20 -20 -20 -20 -20 -20 -20 -20 -20 -20 -20 -20 -20 -20 -20 -20 -20 -20 -20 -20 -20 -20 -20 -20
-1 18 12 -18 -17 -20 13 15 0 -4 -20 -20 -20 -20 -20 -20 -20 -20 -20 -20 -20 -20 -20 -20 -20 -20 -20 -20 -20 -20 -20 -20 -20 -20 -20 -20 -20 -20 -20 -20 -20 -20 -20 -20
-20 2 27 22 -20 -17 -19 16 -1 -19 -20 -20 -20 -20 -20 -20 -20 -20 -20 -20 -20 -20 -20 -20 -20 -20 -20 -20 -20 -20 -20 -20 -20 -20 -20 -20 -20 -20 -20 -20 -20 -20 -20 -20
4 -12 7 17 32 28 6 -11 5 -4 -19 -20 -20 -20 -20 -20 -20 -20 -20 -20 -20 -20 -20 -20 -20 -20 -20 -20 -20 -20 -20 -20 -20 -20 -20 -20 -20 -20 -20 -20 -20 -20 -20 -20
-20 -20 -20 -20 -20 -18 -11 7 16 -3 -20 -20 -20 -17 -8 -20 -20 -20 -20 -20 -20 -20 -20 -20 -20 -20 -20 -20 -20 -20 -20 -20 -20 -20 -20 -20 -20 -20 -20 -20 -20 -20 -20 -20

GFSCGP_prec_radar_069.txt.gz
Reflectivity
-20 -20 -20 -20 -20 -20 -20 -20 -20 -20 -20 -20 -20 -20 -20 -17 -14 14 6 -9 -18 -20 -20 -20 -20 -20 -20 -20 -20 -20 -20 -20 -20 -20 -20 -20 -20 -20 -20 -20 -20 -20 -20 -20
-20 -20 -20 -20 -20 -20 -20 -20 -20 -17 -20 -20 -20 -20 -20 -20 -20 -20 -20 -20 -20 -20 -20 -20 -20 -20 -20 -20 -20 -20 -20 -20 -20 -20 -20 -20 -20 -20 -20 -20 -20 -20 -20 -20
-20 -12 -20 -20 -20 -20 -20 -20 -20 -20 -20 -20 -20 -20 -20 -20 -20 -20 -20 -20 -20 -20 -20 -20 -20 -20 -20 -20 -20 -20 -20 -20 -20 -20 -20 -20 -20 -20 -20 -20 -20 -20 -20 -20
-20 -12 -20 -18 -20 -20 -20 -20 -20 -20 -20 -20 -20 -20 -20 -20 -20 -20 -20 -20 -20 -20 -20 -20 -20 -20 -20 -20 -20 -20 -20 -20 -20 -20 -20 -20 -20 -20 -20 -20 -20 -20 -20 -20
-19 -2 -20 -13 -20 -20 -20 -20 -20 -20 -20 -20 -20 -20 -0 -20 -20 -20 -20 -20 -20 -20 -20 -20 -20 -20 -20 -20 -20 -20 -20 -20 -20 -20 -20 -20 -20 -20 -20 -20 -20 -20 -20 -20
-20 -20 -20 -20 -20 -20 -20 -16 -20 -20 -20 -20 -20 -20 -18 -15 -20 -20 -20 -20 -20 -20 -20 -20 -20 -20 -20 -20 -20 -20 -20 -20 -20 -20 -20 -20 -20 -20 -20 -20 -20 -20 -20 -20
-20 -20 -20 -20 -20 -20 -20 -20 -20 -20 -20 -20 -20 -15 -20 -19 -20 -20 -20 -20 -20 -20 -20 -20 -20 -20 -20 -20 -20 -20 -20 -20 -20 -20 -20 -20 -20 -20 -20 -20 -20 -20 -20 -20
-16 -17 -20 -7 -20 -10 -20 -20 -20 -20 -20 -20 -20 -20 -20 -20 -20 -20 -20 -20 -20 -20 -20 -20 -20 -20 -20 -20 -20 -20 -20 -20 -20 -20 -20 -20 -20 -20 -20 -20 -20 -20 -20 -20
-20 -20 9 8 -20 -20 -20 -20 -20 -20 -20 -20 -20 -20 -20 -20 -20 -20 -20 -20 -20 -20 -20 -20 -20 -20 -20 -20 -20 -20 -20 -20 -20 -20 -20 -20 24 -20 -20 -20 -20 -13 -16 -20
-20 -20 20 -2 -20 -20 -20 -20 -3 -0 -7 -16 13 10 -20 -20 -20 -20 -20 -20 -20 -20 -20 -20 -20 -20 -20 -20 -20 -20 -20 -20 -20 -20 -20 -20 -20 12 -7 -20 29 0 5 33
-20 -8 -6 -1 -20 -20 -12 -20 -10 7 -0 -20 -4 -20 -20 -20 10 -19 -20 -20 -20 -20 -20 -20 -20 11 -20 -20 -20 -20 -20 -20 -20 -20 -20 -20 -20 -20 -16 18 33 34 38 30
-15 -1 5 -15 -20 -20 -19 -20 -20 -20 -19 -4 -20 -20 -20 -20 -20 -20 -20 -20 -20 -20 -20 -20 -20 -20 -20 -20 -20 -20 -20 -20 -20 27 16 10 26 -16 35 34 42 35 12 -6
-14 24 7 -8 -17 -15 -20 -20 -20 -20 -18 -17 -20 -20 -20 -20 -19 -20 -20 -20 -20 -20 -20 -20 -20 -20 -20 -20 -20 -20 -16 25 30 35 29 37 36 25 32 26 15 1 -11 -13
7 -14 18 -17 -20 4 -11 -20 -20 -20 -3 -7 -20 -20 -12 -20 -17 -20 -20 -20 -20 -20 -20 -20 -20 -20 -20 -20 -20 -20 5 23 31 17 16 -1 15 -12 -14 8 31 -10 6 15
-13 3 -20 -20 -16 11 -0 -20 -20 -20 -20 -20 -20 -20 -20 -20 -20 -20 -20 -20 -20 -20 -20 -20 -20 -20 -20 -20 -20 -20 -20 -20 -20 -20 -17 -11 -8 17 -13 -4 -2 7 3 -6
-20 -20 4 -8 -15 23 15 7 -20 -20 -20 -20 -6 -20 -20 -20 -20 -5 -20 -20 -20 -20 -20 -20 -20 -20 -20 -20 -20 -20 -20 -20 -20 -20 -20 -20 -20 -20 -20 -20 -20 -20 -20 9
-20 -20 -4 -2 2 -0 27 -6 -20 -16 -20 -20 -20 -20 -20 -20 -20 -9 -20 -20 -20 -20 -20 -20 -20 -20 -20 -20 -20 -20 -20 -20 15 13 2 -13 -20 -20 -20 -20 -16 -2 -7 -0
-20 -20 6 -7 10 6 -14 -19 10 -5 -20 -10 -20 -20 -20 -20 -20 -20 -20 -20 -20 -20 -20 -20 -20 -20 -20 -20 -20 -20 -20 -20 -20 -20 -20 -20 -20 -20 -20 -20 -20 -20 -20 -20
-20 -20 0 19 6 -14 -15 -16 -7 -20 -20 -20 -20 -20 -20 -20 -20 -20 -20 -20 -20 -20 -20 -20 -20 -20 -20 -20 -20 -20 -20 -20 -20 -20 -20 -20 -20 -20 -20 -20 -20 -20 -20 -20
16 -19 -20 -18 -20 -20 -20 6 -19 -20 -20 -20 -20 -20 -20 -20 -20 -20 -20 -20 -20 -20 -20 -20 -20 -20 -20 -20 -20 -20 -20 -20 -20 -20 -20 -20 -20 -20 -20 -20 -20 -20 -20 -20
-20 -20 -20 -19 -20 -20 -20 10 8 -15 -20 -11 -15 -20 -20 -20 -20 -20 -20 -20 -20 -20 -20 -20 -20 -20 -20 -20 -20 -20 -20 -20 -20 -20 -20 -20 -20 -20 -20 -20 -20 -20 -20 -20
-20 -20 -15 -20 -20 -20 -20 17 18 -10 -20 -8 -20 -20 -20 -20 -20 -20 -20 -20 -20 -20 -20 -20 -20 -20 -20 -20 -20 -20 -20 -20 -20 -20 -20 -20 -20 -20 -20 -20 -20 -20 -20 -20
-20 -20 -20 -20 -20 -20 14 21 18 1 -20 -19 -20 -20 -20 -20 -20 -20 -20 -20 -20 -20 -20 -20 -20 -20 -20 -20 -20 -20 -20 -20 -20 -20 -20 -20 -20 -20 -20 -20 -20 -20 -20 -20
-20 -19 16 -1 -20 6 -20 1 -2 19 -1 -20 -11 -20 -20 -10 -15 -16 -20 -20 -20 -20 -20 -20 -20 -20 -20 -20 -20 -20 -20 -20 -20 -20 -20 -20 -20 -20 -20 -20 -20 -20 -20 -20
-20 -20 3 -13 -15 27 -2 41 12 -19 -16 -20 -20 -20 -20 -20 -20 -20 -20 -20 -20 -20 -20 -20 -20 -20 -20 -20 -20 -20 -20 -20 -20 -20 -20 -20 -20 -20 -20 -20 -20 -20 -20 -20
-20 -20 -13 -1 -18 -20 -17 11 25 11 24 1 -20 -20 -20 -20 -20 -20 -20 -20 -20 -20 -20 -20 -20 -20 -20 -20 -20 -20 -20 -20 -20 -20 -20 -20 -20 -20 -20 -20 -20 -20 -20 -15

GFSCGP_prec_radar_072.txt.gz
Reflectivity
-20 -20 -20 -20 -20 -20 -20 -20 -20 -20 -20 1 -20 -20 -20 -20 -20 -20 -20 -20 -20 -20 -20 -20 -20 -20 -20 -20 -20 -20 -0 -20 -13 -10 -7 9 2 -20 -20 -20 -20 -20 -20 -20
-20 -20 -20 -20 -20 -20 -20 -20 -20 -20 -20 -20 -9 -20 -20 -20 -20 -20 -20 -20 -20 -20 -20 -20 -20 -20 -20 -20 -20 -20 -20 -20 -20 -20 -20 -20 -20 -20 -20 -20 -20 -20 -20 -20
-20 -20 -20 -20 -20 -20 -20 -20 -20 -20 -20 -20 -20 -20 -20 -20 -20 -20 -20 -19 -20 -20 -20 -20 -20 -20 -20 -20 -20 -20 -20 -20 -20 -20 -20 -20 -20 -20 -20 -20 -20 -20 -20 -20
-20 -20 -20 -20 -20 -20 -20 -20 -20 -20 -20 -20 -20 -20 -20 -20 -20 -20 -20 -20 -20 -20 -20 -20 -20 -20 -20 -20 -20 -20 -20 -20 -20 -20 -20 -20 -20 -20 -20 -20 -20 -20 -20 -20
-20 -20 -20 -20 -14 -16 -12 -20 -20 -20 -20 -20 -20 -20 -20 -20 -20 -20 -20 -20 -20 -20 -20 -20 -20 -20 -20 -20 -20 -20 -20 -20 -20 -20 -20 -20 -20 -20 -20 -20 -20 -20 -20 -20
-20 -20 -20 -20 -15 -10 -18 -20 -20 -20 -20 -20 -20 -20 -20 -20 -20 -20 -20 -20 -20 -20 -20 -20 -20 -20 -20 -20 -20 -20 -20 -20 -20 -20 -20 -20 -20 -20 -20 -20 -20 -20 -20 -20
-20 -20 -20 -20 -20 -20 -20 -20 -20 -20 -20 -20 -20 -20 -20 -20 -20 -20 -20 -20 -20 -20 -20 -20 -20 -20 -20 -20 -20 -20 -20 -20 -20 -20 -20 -20 -20 -20 -20 -20 -20 -20 -20 -20
-20 -20 -20 -20 -20 -4 -20 -20 -20 -20 -20 -20 -20 -20 -20 -20 -20 -20 -20 -20 -20 -20 -20 -20 -20 -20 -20 -20 -20 -20 -20 -20 -20 -20 -20 -20 -20 -20 -20 -20 -20 -20 -20 -20
-20 -20 -20 -20 -18 2 -20 -20 -20 -20 -20 -20 -20 -20 -20 -20 -20 -20 -20 -20 -20 -20 -20 -20 -20 -20 -20 -20 -20 -20 -20 -20 -20 -20 -20 -20 -20 -20 -20 -20 -20 -20 -1 -8
-20 -20 -20 -20 -16 -20 -20 -20 -20 -20 -11 -20 -20 -20 -20 -20 -20 -20 -20 -20 -20 -20 -20 -20 -20 -20 -20 -20 -20 -20 -20 -20 -20 -20 -20 -20 -20 -20 -20 -14 -20 3 -20 -19
-20 -20 -20 -20 11 -9 -20 -19 -9 -20 -20 -20 -20 -20 -20 -20 -20 -20 -20 -20 -20 -20 -20 -20 -20 -20 -19 -20 -20 -20 -20 -20 5 -18 -20 -20 -20 -11 -20 1 -20 23 28 32
-20 -20 -20 -20 -20 -1 5 -20 -20 -20 -20 -20 9 -20 -20 -20 -20 -20 -20 -20 -20 -20 -20 -20 -20 -20 -20 -20 -20 -20 -20 -19 31 30 27 26 22 25 26 26 31 30 41 39
-20 -20 -20 -20 -17 10 -16 -20 -16 -20 -20 -20 -5 -20 -20 -20 -20 -20 -20 -20 -20 -20 -20 -20 -20 -20 -20 -20 -20 -11 -20 13 23 24 36 26 4 23 27 50 49 31 13 -11
-20 -20 -20 -20 -20 -20 -6 -2 -14 -18 -20 -20 -20 -8 -11 -20 -20 -20 -20 -20 -20 -20 -20 -20 -20 -20 -20 -20 -20 -20 -20 -20 10 2 -4 1 3 -3 33 17 31 24 1 -20
-20 -20 -20 -20 -20 12 0 -20 -18 -4 -20 -20 -20 -20 -20 -20 -11 -20 -20 -20 -20 -20 -20 -20 -20 -20 -20 -20 -20 -20 -20 -20 -20 -18 -18 -20 -20 -20 -20 -20 -20 -20 -19 1
-20 -20 -20 -20 -20 10 7 -20 -20 -8 11 -19 -20 -20 -20 -20 -20 -20 -20 -20 -20 -20 -20 -20 -20 -20 -20 -20 -20 -20 -20 -20 26 -17 -19 -20 -20 -20 -20 -20 -20 -1 0 10
-20 -20 -20 -20 -20 22 0 -20 -20 -20 -20 -1 -20 -20 -7 -5 -20 -20 -20 -20 -20 -20 -20 -20 -20 -20 -20 -20 -20 -20 -20 -20 -20 -20 -20 -20 -18 17 10 -19 -16 -0 0 15
-5 -20 -20 -20 -20 17 9 -7 -19 -14 -20 -20 -19 -20 -20 -20 -20 -20 -20 -20 -20 -20 -20 -20 -20 -20 -20 -20 -20 -20 -20 -20 -20 -20 -20 -4 -5 10 12 -5 -15 9 8 0
5 15 -17 -8 -19 -20 -20 -14 12 14 -19 -20 -20 -18 -20 -20 -20 -20 -20 -20 -20 -20 -20 -20 -20 -20 -20 -20 -20 -20 -20 -20 -20 -20 -20 -20 6 9 -14 -11 -20 -14 -20 -20
19 16 18 -17 -20 -20 -20 -20 -5 26 8 -3 0 -20 -20 -20 -20 -20 -20 -20 -20 -20 -20 -20 -20 -20 -20 -20 -20 -20 -20 -20 -20 -20 -20 -20 -20 -20 -20 -20 -20 -20 -20 -20
-4 6 -16 -20 -20 -11 -20 11 13 23 11 18 30 -1 -20 -20 -20 -20 -20 -20 -20 -20 -20 -20 -20 -20 -20 -20 -20 -20 -20 -20 -20 -20 -20 -20 -20 -20 -20 -20 -20 -20 -20 -20
16 18 -20 -0 -20 3 -20 -10 13 11 -6 -3 17 10 -20 -20 -20 -20 -20 -20 -20 -20 -20 -20 -20 -20 -20 -20 -20 -20 -20 -20 -20 -20 -20 -20 -20 -20 -20 -20 -20 -20 -20 -20
-9 -19 21 -10 -20 -20 -20 -20 -8 3 -19 -20 -19 3 -20 -20 -20 -20 -20 -20 -20 -20 -20 -20 -20 -20 -20 -20 -20 -20 -20 -20 -20 -20 -20 -20 -20 -20 -20 -20 -20 -20 -20 -20
-20 -7 -20 -20 -20 -20 -20 -20 -20 14 17 -7 -20 -20 -20 -20 -20 -20 -20 -20 -20 -20 -20 -20 -20 -20 -20 -20 -20 -20 -20 -20 -20 -20 -20 -20 -20 -20 -20 -20 -20 -20 -20 -20
-20 -20 -20 -20 -20 -20 -20 -20 -20 -20 -20 -13 -12 -19 -20 -20 -20 -20 -20 -13 6 -11 -20 -20 -20 -20 -20 -20 -20 -20 -20 -20 -20 -20 -20 -20 -20 -20 -20 -20 -20 -20 -20 -20
-20 -20 -20 -20 -20 -9 -16 -16 -2 -2 -6 28 -15 -19 -5 -20 -20 4 -20 -20 6 -20 -20 -20 -20 -20 -20 -20 -20 -20 -20 -20 -20 -20 -20 -15 -19 -20 -20 -20 -20 -17 -18 -20

GFSCGP_prec_radar_075.txt.gz
Reflectivity
-20 -20 -20 -20 -20 -20 -20 -20 -20 -20 -20 -20 -20 -20 -20 -20 -20 -20 -20 -20 -20 -20 -20 -20 -20 -20 -20 -20 10 -8 10 13 18 22 17 22 7 -11 -20 -3 8 -20 -20 -20
-20 -20 -20 -20 -20 -20 -20 -20 -20 -20 -20 -20 -20 -20 -20 -20 -20 -20 -20 -20 -20 -20 -20 -20 -20 -20 -19 -20 -20 -20 -20 -20 -20 3 29 15 -20 5 -7 -5 -20 -20 -20 -20
-20 -20 -20 -20 -20 -20 -20 -20 -20 -20 -20 -20 -20 -20 -20 -20 -20 -20 -20 -20 -20 -20 -20 -20 -20 -20 -20 -20 -20 -20 -20 -20 -20 12 -18 -20 -5 17 -19 -20 -20 -20 -20 -20
-20 -20 -20 -20 -20 -20 -20 -20 -20 -20 -20 -20 -20 -20 -20 -20 -20 -20 -20 -20 -20 -20 -20 -20 -20 -20 -20 -20 -20 -20 -20 -20 -20 -20 -20 -20 -20 -20 -20 -20 -20 -20 -20 -20
-20 -20 -20 -20 -20 -20 -20 -20 -20 -20 -20 -20 -20 -20 -20 -20 -20 -20 -20 -20 -20 -20 -20 -20 -20 -20 -20 -20 -20 -20 -20 -20 -20 -20 -20 -20 -20 -20 -20 -20 -20 -20 -20 -20
-20 -20 -20 -20 -20 -20 5 -20 -20 -20 -20 -20 -20 -20 -20 -20 -20 -20 -20 -20 -20 -20 -20 -20 -20 -20 -20 -20 -20 -20 -20 -20 -20 -20 -20 -20 -20 -20 -20 -20 -20 -20 -20 -20
-20 -20 -20 -20 -20 -20 -20 -20 -20 -20 -20 -20 -20 -20 -20 -20 -20 -20 -20 -20 -20 -20 -20 -20 -20 -20 -20 -20 -20 -20 -20 -20 -20 -20 -20 -20 -20 -20 -20 -20 -20 -20 -20 -20
-20 -20 -20 -20 -20 -20 -20 -20 -20 -20 -20 -20 -20 -20 -20 -20 -20 -20 -20 -20 -20 -20 -20 -20 -20 -20 -20 -20 -20 -20 -20 -20 -20 -20 -20 -20 -20 -20 -20 -20 -20 -20 -20 -20
-20 -20 -20 -20 -20 5 -19 -20 -20 -20 -20 -20 -20 -20 -20 -20 -20 -20 -20 -20 -20 -20 -20 -20 -20 -20 -20 -20 -20 -20 -20 -20 -20 -20 -20 -20 -20 -20 -20 -20 -20 -20 -20 -20
-20 -20 -20 -20 -20 1 -15 -13 -20 -20 -20 -20 -20 -20 -20 -20 -20 -20 -20 -20 -20 -20 -20 -20 -20 -20 -20 -20 -20 -20 -20 -20 -20 -20 -20 -20 -20 -20 -20 -20 -20 -12 -18 -20
-20 -20 -20 -20 -20 -20 -20 -20 -20 -20 -20 -20 -20 -20 -20 -20 -20 -20 -20 -20 -20 -20 -20 -20 -20 -20 -20 -20 -20 12 -20 -20 13 -20 -20 -20 -20 -20 -20 -16 -20 -20 -8 -13
-20 -20 -20 -20 -20 -20 -20 -20 -20 -20 -20 -20 -20 -20 -20 -20 -20 -20 -20 -20 -20 -20 -20 -20 -20 -20 -20 -20 -20 -20 -20 -20 29 29 30 38 39 28 21 18 19 10 27 3
-20 -20 -20 -20 -20 -20 -19 -20 -20 -20 -20 -20 -20 -20 -18 -20 -20 -20 -20 -20 -20 -20 -20 -20 -20 -20 -20 -20 -20 -20 -20 -20 -9 21 18 17 27 -6 -6 -15 -19 20 8 32
2 -19 -20 -20 -20 -20 -20 -20 -20 -1 -20 -20 -20 -20 13 -20 -20 -20 -20 -20 -20 -20 -20 -20 -20 -20 -20 -20 -20 -20 -20 -20 -1 -19 14 -5 26 -11 -20 -20 -20 -20 26 -11
-7 -8 -20 -20 -20 8 14 7 13 -17 -20 -20 -20 -20 -20 -20 -20 -20 -20 -20 -20 -20 -20 -20 -20 -20 -20 -20 -20 -20 -20 -20 -20 -20 -17 -20 29 16 -20 -20 -20 -2 -20 -3
14 -20 -20 -20 -20 6 12 -20 -18 -4 -20 -20 -20 -20 -20 -20 -20 -20 -20 -20 -20 -20 -20 -20 -20 -20 -20 -20 -20 -20 -20 -20 -20 -20 -20 8 21 31 -20 -20 -20 -5 13 -8
17 13 -13 -20 -20 0 13 -20 -20 -20 -20 -20 -20 -20 -13 -20 -20 -20 -20 -20 -20 -20 -20 -20 -20 -20 -20 -20 -20 -20 -20 -20 -20 -20 -20 -20 -20 -9 -19 -20 -20 4 22 21
41 22 -20 -20 -0 -5 -18 -19 -20 -20 -20 -20 -20 -1 -20 -20 -20 -20 -20 -20 -18 -20 -20 -20 -20 -20 -20 -20 -20 -20 -20 -20 -20 -19 15 15 -20 0 -20 -14 13 12 9 -3
22 13 38 17 -20 -20 -20 -20 -20 5 -16 -20 -20 -20 -20 -20 -20 -20 -20 -20 -20 -20 -20 -20 -20 -20 -20 -20 -20 -20 -15 -20 -20 -19 -13 14 -20 -20 -20 4 14 15 21 17
-20 2 17 16 9 -20 -20 -17 11 15 -19 -19 -20 -20 -20 -20 -20 -20 -20 -20 -20 -20 -20 -20 -20 -20 -20 -20 -20 -20 -20 -20 -20 -20 -20 -20 -20 -20 9 18 15 15 16 13
-10 -20 -20 -20 21 -1 -20 -14 -7 18 -19 21 30 -3 -20 -19 -20 -20 -20 -20 -20 -20 -20 -20 -20 -20 -20 -20 -20 -20 -20 -20 -17 -4 -16 -20 -20 14 3 7 6 7 6 4
-20 -12 -20 4 2 15 -10 -18 -14 -20 12 23 2 -8 -20 -6 -20 -16 -20 -20 -20 -20 -20 -20 -20 -20 -20 -20 -20 -20 -20 -20 -20 -18 -20 3 6 10 8 9 13 10 -20 -20
-20 -20 -20 -20 6 7 14 -20 -9 3 34 -1 -19 -4 8 -17 -17 -20 -20 -20 -20 -20 -20 -20 -20 -20 -20 -20 -20 -20 -20 -20 -20 -20 15 7 7 8 -12 -20 -19 -20 -20 -20
-20 -20 -20 -12 -17 -20 7 -20 -20 -20 -20 26 -17 -17 -20 -20 -3 -19 -20 -20 -20 -20 -19 -20 -20 -20 -20 -20 -20 -20 -20 -20 -20 -20 -15 -20 -20 -20 -20 -20 -20 -20 -20 -20
-20 -20 -20 -19 12 -2 -20 -20 -20 -20 -20 -13 6 -4 -9 -12 -9 -11 12 -15 -18 -8 -3 -20 -20 -20 -20 -19 -8 -20 -20 -20 -20 -20 -20 -20 -20 -20 -20 -20 -20 -20 -20 -20
-20 -20 -20 -20 -20 -20 -20 -20 -20 -20 -20 -20 -20 -12 -20 -20 -20 1 -18 5 13 9 5 -20 -20 -20 -20 -4 -20 -20 -20 -20 -20 -20 -20 -20 -20 -20 -20 -20 -18 -17 -10 3

GFSCGP_prec_radar_078.txt.gz
Reflectivity
-20 -20 -20 -20 -20 -20 -20 -20 -20 -20 -20 -20 -20 -20 -20 -20 -20 -20 -20 -20 -20 -20 -20 -14 -14 -4 10 -7 -17 3 12 12 17 23 25 16 21 21 27 28 28 26 -9 -20
-20 -20 -20 -20 -20 -20 -20 -20 -20 -20 -20 -20 -20 -20 -20 -20 -20 -20 -20 -20 -20 -20 -20 -20 3 -9 -20 -16 5 -4 3 12 24 21 20 23 12 2 27 23 17 -15 -20 -20
-20 -20 -20 -20 -20 -20 -20 -20 -20 -20 -20 -20 -20 -20 -20 -20 -20 -20 -20 -20 -20 -20 -20 -20 -20 -20 -20 -2 4 -20 -18 -0 5 10 -1 3 21 16 8 1 -3 -20 -20 -20
-20 -20 -20 -20 -20 -20 -20 -20 -20 -20 -20 -20 -20 -20 -20 -20 -20 -20 -20 -20 -20 -20 -20 -20 -20 -20 -20 -20 -19 -19 -18 -19 -19 -20 -20 -1 -8 14 2 -17 -20 -20 -20 -20
-20 -20 -20 -20 -20 -20 -20 -20 -20 -20 -20 -20 -20 -20 -20 -20 -20 -20 -20 -20 -20 -20 -20 -20 -20 -20 -20 -20 -20 -20 -20 -20 -20 -20 -15 -20 -20 -20 -20 -20 -20 -20 -20 -20
-20 -20 -20 -20 -20 -20 -20 -20 -20 -20 -20 -20 -20 -20 -20 -20 -20 -20 -20 -20 -20 -20 -20 -20 -20 -20 -20 -20 -20 -20 -20 -20 -20 -20 -20 -20 -20 -20 -20 -20 -20 -20 -20 -20
-20 -20 -20 -20 -20 -20 -20 -20 -20 -20 -20 -20 -20 -20 -20 -20 -20 -20 -20 -20 -20 -20 -20 -20 -20 -20 -20 -20 -20 -20 -20 -20 -20 -20 -20 -20 -20 -20 -20 -20 -20 -20 -20 -20
-20 -20 -20 -20 -20 -20 -20 -20 -20 -20 -20 -20 -20 -20 -20 -20 -20 -20 -20 -20 -20 -20 -20 -20 -20 -20 -20 -20 -20 -20 -20 -20 -20 -20 -20 -20 -20 -20 -20 -20 -20 -20 -20 -20
-20 -20 -20 -20 -20 -20 -20 -20 -20 -20 -20 -20 -20 -20 -20 -20 -20 -20 -20 -20 -20 -20 -20 -20 -20 -20 -20 -20 -20 -20 -20 -20 -20 -20 -20 -20 -20 -20 -20 -20 -20 -20 -20 -20
-20 -20 -20 -20 -20 -20 -20 -20 -20 -20 -20 -20 -20 -20 -20 -20 -20 -20 -20 -20 -20 -20 -20 -20 -20 -20 -20 -20 -20 -20 -10 -20 -20 -20 -20 -20 -20 -20 -20 -20 -20 -20 -20 -20
-20 -20 -20 -20 -20 -20 -20 -20 -20 -20 -20 -20 -20 -20 -16 -20 -20 -20 -20 -20 -20 -20 -20 -20 -20 -20 -20 -20 -20 -7 -20 -0 4 -20 -20 -20 -20 -20 -20 -20 -20 -20 -20 -20
-20 -20 -20 -20 -20 -20 -20 -20 -20 -20 -20 -20 -20 -20 9 -18 -20 -20 -20 -20 -20 -20 -20 -20 -20 -20 -20 -20 -20 -20 -19 -20 24 -6 20 6 13 20 14 6 -14 -5 -20 8
-10 -19 -20 -20 -20 -20 -20 -20 -20 -20 -20 -20 -20 -20 10 -20 -20 -20 -20 -20 -20 -20 -20 -20 -20 -20 -20 -20 -20 -20 -20 -19 -20 -20 19 26 18 13 23 -11 -20 -20 -20 -19
20 7 -20 -20 -20 -20 -20 -20 -20 -20 -20 -20 -20 -20 12 -19 -20 -20 -20 -20 -20 -20 -20 -20 -20 -20 -20 -20 -20 -20 -20 -20 -20 -20 -2 5 -1 12 3 -14 -19 -20 -20 10
21 24 -20 -20 -20 -20 -20 -20 -20 -20 -20 -20 -20 -20 10 -6 -20 -20 -20 -20 -20 -20 -20 -20 -20 -20 -20 -20 -20 -20 -20 -20 -20 -20 -20 -20 -20 -20 -17 -15 2 -20 -11 -17
35 24 10 -20 -20 -20 -20 -20 -20 -20 -20 -20 -20 -20 -20 11 -18 -10 -20 -20 -20 -20 -20 -20 -20 -20 -20 -20 -20 -20 -20 -20 -20 -20 -20 -20 -20 29 -20 9 26 -20 -20 -20
32 39 32 -20 -20 -20 -20 -20 -20 -20 -20 -20 -20 -20 -20 4 -19 -20 -20 -19 -17 -20 -20 -20 -20 -20 -20 -20 -20 -20 -20 -20 -20 -20 -20 -20 -20 -20 -20 -20 -20 -17 11 -3
8 9 36 8 21 -20 -20 -20 -20 -15 -20 -20 -20 -20 -20 -20 1 -13 -20 -20 -20 -20 4 -11 -20 -20 -20 -20 -20 -20 -20 -20 -20 -20 -20 -20 -20 -20 -20 -20 -1 -20 -7 -20
20 13 29 31 4 -20 -20 -20 2 -9 -20 -20 -20 -20 -20 6 -15 -20 -20 -20 -20 -20 -14 -20 -20 -20 -20 -20 -20 -20 -20 -20 -20 -20 -20 -20 -20 -20 -20 11 -20 -20 -18 12
14 0 15 12 8 15 -20 -20 -20 -20 -20 -20 -20 -20 -20 3 -20 -20 -17 -20 -20 -20 -20 -20 -20 -20 -20 -20 -20 -20 -20 -20 -20 -20 -19 7 3 -16 -20 -18 -19 13 13 18
10 -6 9 -3 13 -10 8 14 -13 -20 -20 -20 -20 -19 15 -16 -20 -6 -19 -20 -20 -20 -20 -20 -20 -20 -20 -20 -20 -20 -20 -20 -13 -13 -15 -2 -16 -1 13 0 18 20 16 17
-0 -3 9 21 0 -13 3 -8 9 -8 -20 -20 -20 -9 19 15 -14 9 -20 -8 -19 -20 -20 -20 -20 -20 -20 -20 -20 -20 -9 -20 -7 -18 -2 9 8 -2 8 20 17 15 15 14
-20 3 -16 -20 -17 -20 -11 -8 9 -20 13 -20 -20 15 7 7 31 10 14 -20 -16 0 -20 -20 -20 -20 -20 -12 -20 -15 -20 11 14 8 4 -18 -9 7 11 14 14 13 13 -2
-20 -20 -20 -20 -20 -20 -20 -20 -20 -0 -11 -15 -5 13 25 -1 10 18 -4 -19 3 -4 -3 -20 -20 -20 -20 -20 -20 -20 -20 -20 -20 -20 -17 -2 10 13 10 12 11 12 -9 -2
-20 -20 -20 -20 -20 -20 -20 -20 -20 0 -6 -20 -18 -12 -20 17 -1 -13 12 -9 -20 1 -3 -12 -5 -18 -20 -20 -1 -1 -17 -19 -20 -20 -17 -11 -18 -20 -20 -20 -20 -20 -20 -20
-20 -20 -20 -20 -20 -20 -20 -16 -20 -20 -20 -20 -20 -20 -20 -20 -15 -14 -20 1 5 16 4 24 16 23 2 -20 -2 -20 -9 -15 -20 -20 -20 -20 -20 -20 -20 -5 2 -8 4 11

GFSCGP_prec_radar_081.txt.gz
Reflectivity
-20 -20 -20 -20 -20 -20 -20 -20 -20 -20 -20 -20 -20 -20 -20 -20 -20 -20 -20 -20 -20 -20 -20 -20 -20 -20 -20 11 9 -9 23 15 14 -3 18 31 30 31 24 -17 0 19 2 -20
-20 -20 -19 -19 -20 -20 -20 -20 -20 -20 -20 -20 -20 -20 -20 -20 -20 -20 -20 -20 -20 -20 -20 -20 -20 -17 -20 8 10 4 -4 -7 6 7 25 19 30 25 22 16 12 2 -20 -20
-20 -20 -20 -20 -20 -20 -20 -20 -20 -20 -20 -20 -20 -20 -20 -20 -20 -20 -20 -20 -20 -20 -20 -10 -20 -3 -20 7 0 0 -20 -6 -19 19 20 23 35 31 24 14 20 14 -17 -20
-20 -20 -20 -20 -20 -20 -20 -20 -20 -20 -20 -20 -20 -20 -20 -20 -20 -20 -20 -20 -20 -20 -20 -20 -20 -20 -20 -19 8 4 -20 -20 -14 18 28 22 26 20 21 11 23 16 -7 -16
-5 -20 -15 -20 -20 -20 -20 -20 -20 -20 -20 -20 -20 -20 -20 -20 -20 -20 -20 -20 -20 -20 -20 -20 -20 -20 -20 -20 -20 -20 -14 -20 -20 -2 12 1 2 -2 21 -6 -1 -5 -20 -20
-20 -20 -20 -20 -20 -20 -20 -20 -20 -20 -20 -20 -20 -20 -20 -20 -20 -20 -20 -20 -20 -20 -20 -20 -20 -20 -20 -20 -9 -15 -16 -20 -20 -20 -20 -20 -14 -13 -2 -15 -20 -20 -20 -20
7 -15 -20 -20 -20 -20 -20 -20 -20 -20 -20 -20 -20 -20 -20 -20 -20 -20 -20 -20 -20 -20 -20 -20 -20 -20 -20 -20 -20 -20 -16 -20 -20 -20 -20 -20 -20 -20 -20 -20 -20 -20 -20 -20
-20 -16 -16 -20 -20 -20 -20 -20 -20 -20 -20 -20 -20 -20 -20 -20 -20 -20 -20 -20 -20 -20 -20 -20 -20 -20 -20 -20 -20 -20 -20 -20 -20 -20 -20 -20 -20 -20 -20 -20 -20 -20 -20 -20
-20 -20 -20 -20 -20 -20 -20 -20 -20 -20 -20 -20 -20 -20 -20 -20 -20 -20 -20 -20 -20 -20 -20 -20 -20 -20 -20 -20 -20 -20 -20 -20 -20 -20 -20 -20 -20 -20 -20 -20 -20 -20 -20 -20
-20 -20 -20 -20 -20 -20 -20 -20 -20 -20 -20 -20 -20 -20 -20 -20 -20 -20 -20 -20 -20 -20 -20 -20 -20 -20 -20 -20 -20 -20 -20 -20 -20 -20 -20 -20 -20 -20 -20 -20 -20 -20 -20 -20
-20 -20 -20 -20 -20 -11 -20 -20 -20 -20 -20 -20 -20 -20 -20 -20 -20 -20 -20 -20 -20 -20 -20 -20 -20 -20 -20 -20 -20 -20 -20 -20 -20 -20 -20 -20 -20 -20 -20 -20 -20 -20 -20 -20
-20 -20 -20 -20 -20 -20 -20 -20 -20 -20 -20 -20 -20 -20 -20 -20 -20 -20 -20 -20 -20 -20 -20 -20 -20 -20 -20 -20 -20 -20 -20 -20 -20 -20 -20 -20 -20 -20 -20 -20 -2 -20 -20 -20
-20 -7 -19 -20 -20 -20 -20 -20 -20 -20 -20 -20 -20 -20 -20 -20 -20 -20 -20 -20 -20 -20 -20 -20 -20 -20 -20 -20 -20 -20 -20 -20 -20 28 12 9 -17 6 11 14 6 -20 -20 -20
-2 -7 19 -16 -19 -20 -20 -20 -20 -20 -20 -20 -20 -20 -20 -20 -20 -20 -20 -20 -20 -20 -20 -20 -20 -20 -20 -20 -20 -20 -20 -20 -20 -20 -20 -20 -14 -20 -18 -5 5 -20 -20 -20
-8 -20 -20 -13 -18 -20 -20 -20 -20 -20 -20 -20 -20 -20 -20 -20 -20 -20 -20 -20 -20 -20 -20 -20 -20 -20 -20 -20 -20 -20 -20 -20 -20 -20 -20 -20 -20 -20 -20 -20 -20 -13 -7 -20
-9 -20 -13 -20 -20 -20 -20 -20 -20 -20 -20 -20 -20 -20 -20 -20 -20 -20 -10 -20 -20 -20 -4 -20 -20 -20 -20 -20 -20 -20 -20 -20 -20 -20 -20 -20 -20 -20 -20 -20 -17 -12 -19 20
-20 -14 11 -20 -12 10 -1 -20 -20 -20 -20 -20 -20 -20 -20 -20 -4 1 -20 12 -16 -20 -20 -20 -20 -20 -20 -20 -20 -20 -20 -20 -20 -20 -20 -20 -20 -20 -20 -20 -20 -20 14 14
-20 -2 11 -13 23 27 -19 -20 -20 -20 -20 -20 -20 -20 -20 -20 -20 -19 -2 -20 -5 -10 8 -20 -20 -20 -20 -20 -20 -20 -20 -20 -20 -20 -20 -20 -20 -20 -20 -20 -20 -20 -19 8
-20 -20 14 9 25 30 14 20 -14 -11 -20 -20 -20 -20 -20 -20 -20 -20 -3 -7 -1 11 -6 -20 -20 -20 4 -20 -20 -20 -20 -20 -20 -20 -20 -20 -20 -20 -12 -7 -20 6 15 5
-20 -18 14 4 13 18 29 25 13 -20 -17 -2 12 -20 -20 -20 -20 -20 23 19 -20 -20 -20 -20 -20 -20 -20 1 -20 -20 -20 -20 -20 -20 -20 -20 -20 -20 2 15 20 -4 -8 13
-3 17 -1 -2 3 10 13 -2 13 9 -17 9 -10 -20 -20 -20 -20 -20 16 4 -20 -18 -20 -20 -20 -20 -20 -20 -20 -20 -20 -20 -20 -20 -18 2 -12 -13 -12 -19 -19 -20 -7 2
14 10 -13 0 16 17 7 -19 21 0 16 9 -2 -20 -20 -20 12 16 10 7 -20 -4 8 -6 -20 -20 -20 -20 -20 -20 -20 -20 -12 1 -15 -20 -20 -20 -18 -20 -18 -15 -7 18
-20 -18 16 1 15 12 15 -11 4 11 23 6 -1 2 -20 -14 15 10 13 20 -8 -20 -4 12 2 -20 -20 -20 -20 -20 -20 -20 -20 -20 -20 -17 -12 -9 -13 -16 -4 1 11 16
-20 -20 -20 -20 -20 -20 -12 -20 -20 -8 -20 -20 21 -6 -20 -20 10 17 -17 11 15 -6 -3 10 0 -14 -20 -17 -3 -20 6 12 -20 -20 -20 -20 -20 -8 9 12 9 9 10 13
-20 -20 -20 -20 -20 -20 -20 -20 -20 -20 -20 -20 -20 -20 -20 -16 10 -20 -12 5 35 30 17 -6 -11 -7 3 11 13 16 7 -20 -20 -20 -9 -11 -19 -15 -5 2 -9 -11 -13 -0
-20 -20 -20 -20 -20 -20 -20 -20 -20 -20 -20 -20 -20 -20 -20 -20 -20 -20 -19 11 -1 11 -11 -14 -8 -6 -19 -20 -20 -20 -14 -9 -2 -20 -20 -20 -8 -20 -20 -20 -13 6 13 16

GFSCGP_prec_radar_084.txt.gz
Reflectivity
6 -20 -20 -20 8 -10 -20 -20 -20 -20 -20 -20 -20 -20 -20 -20 -20 -20 -20 -20 -20 -20 -20 -20 -20 -20 -17 4 5 -20 -20 8 14 20 18 16 14 10 26 21 22 16 26 5
6 -13 -20 -12 -12 -20 -20 -20 -20 -20 -20 -20 -20 -20 -20 -20 -20 -20 -20 -20 -20 -20 -20 -20 -20 -20 -10 -20 3 -15 5 10 6 13 17 15 21 17 21 23 21 19 2 -7
1 -3 -19 -14 -19 -20 -20 -20 -20 -20 -20 -20 -20 -20 -20 -20 -20 -20 -20 -20 -20 -20 -20 -20 -20 -20 -12 1 3 -1 -20 -11 24 10 26 21 28 19 21 20 15 18 21 21
-4 9 9 -12 -20 -20 -19 -13 -20 -20 -20 -20 -20 -20 -20 -20 -20 -20 -20 -20 -20 -20 -20 -20 -20 -20 -20 -9 -12 10 4 -10 -16 11 5 15 9 7 15 12 10 26 26 11
5 -4 14 13 -20 -4 -20 -20 -20 -20 -20 -20 -20 -20 -20 -20 -20 -20 -20 -20 -20 -20 -20 -20 -20 -20 -20 -20 -13 5 6 4 -5 5 6 27 10 -19 7 4 7 21 23 14
-19 -19 2 15 5 -20 -20 -20 -20 -20 -20 -20 -20 -20 -20 -20 -20 -20 -20 -20 -20 -20 -20 -20 -20 -20 -20 -20 -20 7 5 7 -15 -1 8 20 9 -11 -8 -14 8 17 12 -20
-20 -20 -20 4 10 -13 -20 -20 -20 -20 -20 -20 -20 -20 -20 -20 -20 -20 -20 -20 -20 -20 -20 -20 -20 -20 -20 -20 -20 -14 -14 8 3 -1 3 8 -5 -12 -4 -4 -6 4 -18 -20
-12 -7 -20 -8 -11 -20 -20 -20 -20 -20 -20 -20 -20 -20 -20 -20 -20 -20 -20 -20 -20 -20 -20 -20 -20 -20 -20 -20 -20 -20 -17 -8 3 -17 -8 1 9 -4 -6 10 -10 -17 -20 -20
-20 -20 -20 -13 -0 -4 -20 -20 -20 -20 -20 -20 -20 -20 -20 -20 -20 -20 -20 -20 -20 -20 -20 -20 -20 -20 -20 -20 -20 -20 -20 -8 -18 -20 -12 2 4 6 -0 -20 -20 -19 -20 -20
-20 -20 -20 -18 -20 -20 -20 -20 -20 -20 -20 -20 -20 -20 -20 -20 -20 -20 -20 -20 -20 -20 -20 -20 -20 -20 -20 -20 -20 -20 -20 -20 -20 2 -20 -20 -20 -20 -20 -2 -19 -20 -13 -20
-20 -20 -20 -20 -20 -20 -20 -20 -20 -20 -20 -20 -20 -20 -20 -20 -20 -20 -20 -20 -20 -20 -20 -20 -20 -20 -20 -20 -20 -20 -20 -20 -20 -20 -20 -20 -20 -20 -20 -20 -20 -20 -20 -20
-19 -20 -20 -20 -20 -20 -20 -20 -20 -20 -20 -20 -20 -20 -20 -20 -20 -20 -20 -20 -20 -20 -20 -20 -20 -20 -20 -20 -20 -20 -20 -20 -20 -20 -20 -20 -20 -20 -20 -20 -20 -20 -20 -20
-20 7 9 -20 -20 -20 -20 -20 -20 -20 -20 -20 2 -20 -20 -20 -20 -20 -20 -20 -20 -20 -20 -20 -20 -20 -20 -20 -20 -20 -20 -20 -20 -20 -20 -20 -20 -20 -18 -3 -20 -20 -17 -20
-20 -20 -20 -13 -1 -11 -20 -20 -20 -20 -20 -20 -20 -20 -20 -20 -20 -20 -20 -20 -20 -20 -20 -20 -20 -20 -20 -20 -20 -20 -20 -20 -20 -20 -20 -20 -20 -20 -20 -20 -20 -20 -20 -20
-20 -20 -20 -20 -20 -20 -20 -20 -20 -20 -20 -20 -20 -20 -20 -20 -20 -20 -20 -20 -1 -19 -20 -20 -20 -20 -20 -20 -20 -20 -20 -20 -20 -20 -20 -20 -19 -20 -20 -20 -20 -20 -20 -20
-20 11 -2 -20 -13 -20 -20 -20 -20 -20 -20 -20 -20 -20 -20 -20 -20 -20 -9 -20 -20 -4 -20 -20 -20 -20 -20 -20 -20 -20 -20 -20 -20 -20 -20 -20 -20 -20 -3 -20 -20 -20 -20 -20
-20 0 -16 -20 10 7 -20 -20 -20 -20 -20 -20 -20 -20 -20 -20 -20 -20 -20 -5 -20 -14 -11 11 -2 -20 -20 -20 -20 -20 -20 -20 -20 -20 -20 -20 -20 -20 -20 -20 -20 -20 -10 7
-8 -6 13 -1 -9 -16 -20 -18 9 -20 -20 -20 -20 -20 -20 -20 -20 -20 -20 -4 -20 -20 -16 -14 5 6 -12 -20 -20 -20 -20 -20 -20 -20 -20 -20 -20 -20 -20 -20 -20 -20 -3 -17
-20 -13 12 -10 12 -20 -20 27 22 21 16 -20 -20 -20 -20 -20 -20 -20 -20 -20 -20 -20 -19 -9 -1 17 -20 -19 -20 -20 -20 -20 -20 -20 -20 -20 -20 -20 -20 -20 -20 -16 -20 -20
-20 -9 12 -6 14 -18 2 11 28 12 25 -20 -20 -20 -20 -20 -20 -20 -20 -20 -20 -20 -20 -14 18 9 10 -8 13 16 -0 -20 -20 -20 -20 -20 -20 -20 -20 -20 -20 -20 -20 -16
-4 9 6 -2 17 5 -11 4 14 34 35 21 4 5 -20 -20 -20 -20 -20 -20 -20 -20 -20 -20 -8 5 -0 -5 -20 -20 -17 -20 -20 -20 -20 -20 -20 -20 -20 -20 -19 -14 -6 -3
25 5 3 3 22 6 -20 -15 15 32 25 3 33 29 8 -20 -20 -20 -20 -20 -20 -20 -20 -20 -20 -16 -12 -3 -5 -15 1 -20 -20 -20 -20 -20 -20 -20 -14 -18 -11 -4 -10 -15
-14 21 28 25 8 -20 -8 9 -10 7 -18 -20 -19 -18 -20 -20 -20 -20 -20 -20 -20 -6 -5 -14 -18 -18 -5 1 -20 -20 5 -20 -20 -20 6 -11 -13 -20 -10 -12 -18 -3 -8 -7
-20 -20 2 0 12 11 24 -12 -20 -20 -20 -20 -20 -20 -20 -20 -20 -20 -20 -20 -20 5 3 13 -20 10 -19 -19 -18 -1 -20 -19 -20 -9 -12 -13 -8 -15 -14 -17 -19 -12 -8 -12
-20 -20 -20 -20 -20 -20 -10 -20 -20 -20 -20 -20 -20 -20 -20 -20 -20 -20 -20 -20 -20 -20 16 27 19 5 -5 15 13 2 4 16 19 7 12 -6 -12 -4 -20 -12 -5 7 -7 10
-20 -20 -15 3 -20 -20 -20 -20 -20 -20 -20 -20 -20 -20 -20 -20 -20 -20 -20 -20 8 -7 16 32 33 25 22 17 12 4 3 5 -0 -16 -20 -9 -20 -19 0 14 5 13 13 14

GFSCGP_prec_radar_087.txt.gz
Reflectivity
-20 -20 -20 -20 -20 6 13 -20 -20 -20 -20 -20 -20 -20 -20 -20 -20 -20 -20 -20 -20 -20 -20 -20 -20 -20 -20 -20 -20 3 -1 -5 10 7 15 11 11 1 6 17 33 34 32 28
-20 -20 -20 -20 7 10 12 -20 -20 -20 -20 -20 -20 -20 -20 -20 -20 -20 -20 -20 -20 -20 -20 -20 -20 -20 -20 -20 -19 11 -1 -10 5 7 6 11 15 17 13 18 24 -4 4 18
-20 -20 -20 -18 10 4 -2 -14 -20 -7 -1 -20 -20 -20 -20 -20 -20 -20 -20 -20 -20 -20 -20 -20 -20 -20 -20 -20 -20 -6 -2 3 11 5 15 24 17 16 18 20 15 -8 9 8
-20 -20 -20 -20 -20 -19 9 5 -1 7 -19 -20 -20 -20 -20 -20 -20 -20 -20 -20 -20 -20 -20 -20 -20 -20 -20 -20 -20 5 -5 2 8 9 7 9 -6 -3 -10 23 12 25 7 -13
-19 -20 -20 -20 -20 7 -19 17 8 -1 -20 -20 -20 -20 -20 -20 -20 -20 -20 -20 -20 -20 -20 -20 -20 -20 -20 -20 -20 5 2 -3 4 14 -14 14 9 17 4 19 -12 -3 12 16
-20 -20 -20 -20 -14 -4 6 10 -18 -20 -20 -20 -20 -20 -20 -20 -20 -20 -20 -20 -20 -20 -20 -20 -20 -20 -20 -20 -20 4 2 -1 -0 2 -11 16 23 18 -1 6 -7 -20 -20 -6
-6 -20 -20 -6 3 -16 -0 3 7 -13 -20 -20 -20 -20 -20 -20 -20 -20 -20 -20 -20 -20 -20 -20 -20 -20 -20 -20 -20 2 -6 -2 -9 -0 7 -1 24 22 2 -18 -19 -1 -15 10
-19 -19 -20 -20 -20 -5 4 10 9 -18 3 1 3 -20 -20 -20 -20 -20 -20 -20 -20 -20 -20 -20 -20 -20 -20 -20 -20 -20 -15 2 8 -1 5 6 0 -20 -20 -8 -14 4 14 3
-20 -15 -20 -20 -19 -16 -20 -20 -6 -1 1 12 9 -1 -20 -20 -20 -20 -20 -20 -20 -20 -20 -20 -20 -20 -20 -20 -20 -20 -20 -3 -1 7 -3 -2 -9 13 -8 -20 -20 -20 8 5
-20 -20 -20 -20 -20 -20 -20 -13 -20 -5 -20 -20 -20 -20 -20 -7 -20 -20 -20 -20 -20 -20 -20 -20 -20 -20 -20 -20 -20 -20 -20 -20 -8 -4 4 3 11 8 -1 -20 -20 -20 -20 -18
-20 -20 -20 -20 -20 -8 -2 -7 -20 -20 -20 -20 -20 -20 12 12 -20 -20 -20 -20 -20 -20 -20 -20 -20 -20 -20 -20 -20 -20 -20 -20 -20 -8 -13 -8 -20 10 12 5 -20 -20 -20 -20
-18 11 -20 -20 -20 -20 -20 -20 -20 -20 -20 -5 -20 -20 -20 -20 -20 -20 -20 -20 -20 -20 -20 -20 -20 -20 -20 -20 -20 -20 -20 -20 -20 -20 -14 -8 -20 -19 -19 7 -4 -20 -20 -20
-20 17 2 -15 -20 -9 -20 -20 -20 -20 -20 -20 -7 -20 -16 -20 -20 -20 -20 -20 -20 -20 -20 -20 -20 -20 -20 -20 -20 -20 -20 -20 -20 -20 -20 -20 -1 -10 -14 -20 -20 -4 -19 -20
-20 -20 -20 -17 9 -13 -20 -20 -20 -20 -20 -20 -20 -20 -6 15 -4 -19 -20 -20 -20 -20 -20 -20 -20 -20 -20 -20 -20 -20 -20 -20 -20 -20 -20 -20 -20 -20 -20 -13 2 1 -3 1
-20 -20 -20 -20 -20 -20 -20 -20 -20 -20 -20 -19 -20 -20 -20 -20 -19 -8 -20 -8 -20 -20 -20 -20 -20 -20 -20 -20 -20 -20 -20 -20 -20 -20 -20 -20 -20 -20 -20 -16 2 -3 -20 3
2 2 -15 -20 -20 -20 -20 -20 -20 -20 -20 -20 -11 -20 -20 -20 -20 -20 -20 -20 -20 -19 -20 -20 -20 -20 -20 -20 -20 -20 -20 -20 -20 -20 -20 -20 -20 -20 -20 -20 -20 -20 -20 -20
9 -4 5 2 -20 7 -14 -20 -18 -20 -20 -20 -20 -20 -20 -20 -19 -20 -20 -20 -20 -20 -20 -20 -20 -20 -20 -20 -20 -20 -20 -20 -20 -20 -20 -20 -20 -20 -20 -20 -20 -20 -20 -20
-8 -3 7 12 -20 -20 -20 -20 -20 -20 -20 -20 -20 -20 -20 -17 -4 11 -20 -20 -20 -20 -20 -18 11 -17 -20 -20 -20 -20 -20 -20 -20 -20 -20 -20 -20 -20 -20 -20 -20 -20 -20 -20
-20 7 19 14 4 -20 -20 -20 -20 -20 -20 -12 -20 -20 -20 -20 -19 -17 -20 -20 -20 -20 -20 -20 -20 -18 -2 -13 6 -20 -20 -20 -20 -20 -20 -20 -20 -20 -20 -20 -20 -20 -20 -20
-20 5 14 12 6 5 14 -20 -20 -16 15 4 4 9 9 -17 -16 24 18 -20 -20 -20 -20 -20 -20 -20 -20 -20 5 10 -20 -16 -20 -20 -18 -20 -20 -20 -20 -20 -20 -20 -20 -20
-5 10 10 9 7 -11 29 -19 -20 -17 12 -3 5 3 13 -12 -10 15 -19 -20 -20 -20 -20 -20 -20 -20 -20 -20 -9 -1 4 -1 9 -10 13 -20 -20 -20 -20 -20 -20 -20 -20 -20
1 10 15 12 9 9 -12 -20 18 12 27 36 40 19 6 9 6 -20 -20 -20 -20 -20 -20 -20 -20 -20 -20 -20 -20 13 24 -8 0 17 3 0 16 8 -20 -20 -20 -20 1 18
1 1 15 -16 -4 31 -17 -4 -20 4 13 12 33 28 28 37 15 -19 -20 -20 -20 -20 -20 -20 -20 -20 -20 -20 -20 -14 12 17 10 6 10 5 -4 -2 -20 -19 21 26 18 14
-18 -20 30 27 0 1 -14 15 -18 -13 -1 2 1 -20 -0 -6 -20 -20 -20 -20 -20 -20 -6 -20 -20 -20 -13 -20 -10 -6 -20 -8 -18 -15 3 6 15 19 20 25 22 16 23 18
-11 15 -17 -19 9 25 22 11 10 -18 -17 3 -13 -20 -20 -20 -8 -20 -20 -20 -20 -20 -20 -20 -20 -14 3 -0 12 9 20 15 13 10 13 4 24 17 14 18 9 15 28 19
-2 7 7 22 -20 -20 -11 -10 -18 -20 -20 -20 -20 -20 -20 -20 -20 -20 -20 -20 -20 -20 -20 -20 -3 21 25 30 21 14 19 25 26 22 23 21 18 22 15 12 9 17 20 14

GFSCGP_prec_radar_090.txt.gz
Reflectivity
-20 -20 -20 -20 -20 -20 -20 -20 -20 -20 1 12 -20 -15 -13 -20 -20 -20 -20 -20 -20 -20 -20 -20 -20 -20 -20 -20 -20 -20 -12 5 -4 -4 -10 -12 1 6 16 21 24 25 33 24
-20 -20 -20 -20 -20 -20 -20 -20 -20 -20 4 12 -6 -20 -20 -20 -20 -20 -20 -20 -20 -20 -20 -20 -20 -20 -20 -20 -20 -20 -18 -16 -1 -11 -13 -15 -7 9 19 26 29 16 22 14
-20 -20 -20 -20 -20 -20 -20 -20 -20 -19 3 13 -15 -20 -20 -20 -20 -20 -20 -20 -20 -20 -20 -20 -20 -20 -20 -20 -20 -20 7 -5 -18 1 17 -8 -14 -10 7 9 22 30 34 30
-20 -20 -20 -20 -20 -20 -20 -20 -20 1 14 8 -14 -9 -20 -20 -20 -20 -20 -20 -20 -20 -20 -20 -20 -20 -20 -20 -20 -14 8 -19 -19 -6 -9 -20 -20 -20 -17 16 26 16 -12 6
-20 -20 -20 -20 -20 -17 -20 -18 10 -11 11 12 -0 -12 -20 -20 -20 -20 -20 -20 -20 -20 -20 -20 -20 -20 -20 -20 -20 -19 12 -10 -7 4 -17 -20 -20 -20 -0 -4 -20 -20 -13 18
-20 -20 -20 -20 -20 -20 -20 -18 -15 -11 18 20 -8 -20 -20 -14 -20 -20 -20 -20 -20 -20 -20 -20 -20 -20 -20 -20 -20 -20 8 -2 6 1 3 -16 -20 -20 -1 16 -8 -20 -20 -15
-20 -20 -20 -20 -9 -10 -20 -20 2 3 -12 -14 -13 -18 -20 -17 -14 -20 15 -20 -20 -20 -20 -20 -20 -20 -20 -20 -20 1 -12 6 -14 4 7 -20 -17 -18 10 2 -10 -20 -20 -20
-20 -20 -20 -20 -19 -6 -20 -17 -20 -18 9 16 3 4 -20 -19 -7 -20 -20 -20 -20 -20 -20 -20 -20 -20 -20 -20 -20 -20 -19 -13 -20 -16 8 12 -20 -6 10 -19 -20 -20 -2 -20
-20 -17 -15 -20 -20 -16 -20 -20 -15 -13 3 22 15 9 -19 -14 -9 -14 -20 -20 -20 -20 -20 -20 -20 -20 -20 -20 -20 -20 -20 -20 -20 -20 -2 3 -20 -20 -20 -20 -20 -20 -1 -10
-20 -20 -17 -16 -13 -20 -20 -16 11 10 -1 -10 3 20 -3 13 -20 -20 -20 -20 -20 -20 -20 -20 -20 -20 -20 -20 -20 -20 -20 -20 -20 -17 -9 -2 -11 -20 -20 -19 -20 -20 -18 4
-10 -20 -20 -20 -11 -10 -2 -20 -16 -17 -10 -2 -20 7 17 -5 -1 -11 4 -5 -20 -20 -20 -20 -20 -20 -20 -20 -20 -20 -20 -20 -20 -20 9 6 -14 -11 -20 -17 -20 -20 -20 -19
11 -20 -20 -20 1 -11 -20 -11 -0 2 -7 -14 -20 -19 7 18 22 31 -14 -20 -20 -20 -20 -20 -20 -20 -20 -20 -20 -20 -20 -20 -20 -20 -20 9 -1 6 -3 -20 -20 -20 -20 -20
-20 -20 -13 -20 -20 -20 -20 -12 -0 -19 -2 -6 14 -16 13 18 12 23 -11 -20 -2 -20 -20 -20 -20 -20 -20 -20 -20 -20 -20 -20 -20 -20 -20 -13 -5 -1 5 -13 -8 -20 -20 -20
-20 -20 -20 -19 27 -19 -20 -1 -19 4 15 -20 -20 -20 4 -2 3 -0 -13 -20 -5 -20 -20 -20 -20 -20 -20 -20 -20 -20 -20 -20 -20 -20 -20 -20 -20 -20 -20 -20 6 1 -20 -20
-20 -20 -20 -20 -19 13 -17 -20 -20 -20 -20 -20 -20 -20 -20 -14 14 21 19 28 6 -20 -20 -20 -20 -20 -20 -20 -20 -20 -20 -20 -20 -20 -20 -20 -20 -20 -20 -12 -20 8 1 -20
-13 11 -20 -20 -20 -20 -20 -20 -20 -20 -20 -20 -20 -20 -20 -20 -20 -20 -19 -20 -20 -20 -20 -20 -20 -20 -20 -20 -20 -20 -20 -20 -20 -20 -20 -20 -20 -20 -20 -20 -20 -17 5 8
1 -17 -12 -20 -20 -20 -20 -20 -20 -20 -20 -20 -20 -20 -20 -20 -20 -20 -9 -20 -20 -20 -20 -20 -20 -20 -20 -20 -20 -20 -20 -20 -20 -20 -20 -20 -20 -20 -20 -20 -20 -20 -20 -20
-20 -2 11 -2 -20 -20 -20 -20 -20 -20 -20 -20 -20 -20 -20 -20 -20 -20 -20 -18 -20 -20 -20 -20 -20 -20 -20 -20 -20 -20 -20 -20 -20 -20 -20 -20 -20 -20 -20 -20 -20 -20 -20 -20
-20 -2 13 11 -15 -20 -20 -20 -20 -20 -20 -20 -20 -20 -20 -20 -20 -20 -20 -12 -20 -20 -20 -20 -20 -20 -20 8 4 -20 -20 -20 -20 -20 -20 -20 -20 -20 -20 -20 -20 -17 -13 5
-20 -20 6 13 1 0 8 -16 -20 -20 8 -20 -20 22 -10 -20 1 17 -20 -20 -11 -20 -20 -20 -20 -20 -20 -20 -20 4 0 -18 -20 -20 -20 10 -20 -20 -16 -20 -20 -20 -20 -20
-7 8 3 2 10 -6 -20 -6 21 1 -18 -18 5 31 31 12 0 -16 11 26 -3 -20 -20 -20 -20 -20 -20 -20 -20 -20 -20 -19 -7 -12 -20 -20 -20 -20 -20 0 -20 -20 -20 -20
1 10 14 11 10 10 -8 0 28 17 -5 -20 3 -2 35 16 20 -6 28 7 -11 -17 -20 -20 -20 -20 -20 -20 -20 -20 -20 9 -20 -8 17 -3 3 -20 -3 -15 -10 -20 -20 -1
22 -9 16 -3 2 3 -2 21 -20 -20 -20 -17 3 10 39 19 -20 -14 41 45 24 -18 -20 -20 -20 -19 -20 -20 -20 -20 -20 -16 20 -20 10 28 22 15 16 17 24 -12 -2 20
14 -6 17 5 8 19 9 28 -11 -20 -20 -18 -20 7 5 -9 15 20 23 17 -18 -20 -20 -20 -20 -20 -19 5 -13 -16 -3 -20 -18 21 18 -8 20 29 27 19 24 19 29 17
11 26 22 16 16 -9 -13 -20 -5 -9 -5 1 -15 -20 8 -15 -8 11 5 -20 -20 -10 1 -20 -20 -20 3 6 16 2 6 21 -12 -11 -13 -8 11 15 11 18 29 29 17 19
21 7 7 36 -5 9 26 1 6 -9 -20 -12 -16 -20 -20 -8 1 -20 6 -19 -8 -0 -20 -20 -19 -20 -0 26 17 8 16 33 24 17 16 16 12 9 12 15 17 24 27 27

GFSCGP_prec_radar_093.txt.gz
Reflectivity
-20 -20 -20 -20 -20 -20 -20 -20 -20 -20 -20 -20 -20 -20 -20 -20 -20 -20 -20 -20 -20 -20 -20 -20 -20 -20 -20 -20 -20 -20 -20 -11 -20 -20 -7 -20 5 -9 -17 -20 -4 13 3 10
-20 -20 -20 -20 -20 -20 -20 -20 -20 -20 -20 -20 -20 -20 -20 -19 7 -20 -20 -20 -20 -20 -20 -20 -20 -20 -20 -20 -20 -20 -20 -20 -20 -17 12 -17 -15 -2 3 6 11 10 23 9
-20 -20 -20 -20 -20 -20 -20 -20 -20 -20 -20 -20 -20 -20 -20 -20 -20 -5 -17 -20 -20 -20 -20 -20 -20 -20 -20 -20 -20 -20 -20 -16 -11 -6 -1 -15 -14 -12 10 14 11 25 22 23
-20 -20 -20 -20 -20 -20 -20 -20 -20 -20 -20 -20 -20 -20 -20 -20 -20 -17 -20 -20 -20 -20 -20 -20 -20 -20 -20 -20 -20 -20 -20 -10 2 -20 -19 -20 -18 -12 14 -8 14 24 31 31
-20 -20 -20 -20 -20 -20 -20 -20 -20 -20 -20 -20 -20 -5 -20 -20 -20 -1 -19 -20 -20 -20 -20 -20 -20 -20 -20 -20 -20 -20 -20 -20 2 16 -19 -20 -20 -20 -20 -9 2 17 30 35
-20 -20 -20 -20 -20 -20 -20 -20 -20 -20 -20 -20 -20 -19 -20 -20 -19 15 -20 -20 -20 -20 -20 -20 -20 -20 -20 -20 -20 -20 -20 -16 -13 -17 -20 -20 -20 -20 -19 -8 -0 -1 8 1
-20 -20 -20 -20 -20 -20 -20 -20 -20 -20 -20 -20 -19 16 -9 -20 17 23 5 -20 -20 -20 -20 -20 -20 -20 -20 -20 -20 -20 -20 -2 -8 4 -20 -20 -20 -20 -20 14 -11 6 6 3
-20 -20 -20 -20 -20 -20 -20 -9 -19 -0 -18 -20 -14 -9 -20 8 18 18 -2 -20 -20 -20 -20 -20 -20 -20 -20 -20 -20 -20 -20 -5 -4 8 -20 -20 -20 -20 -14 0 -18 -8 -19 -7
-20 -20 -20 -20 -20 -20 -20 -20 -20 -5 -20 8 -16 -9 -19 2 20 10 18 -10 -20 -20 -20 -20 -20 -20 -20 -20 -20 -20 -20 -20 -20 1 -20 -20 -20 -20 -20 -20 -20 -20 -20 -20
-20 -20 -20 -20 -20 -20 -20 -20 1 4 4 -9 -20 -4 19 8 12 28 17 14 -18 -20 -20 -20 -20 -20 -20 -20 -20 -20 -20 -20 -20 11 -20 -19 -16 -2 -20 -20 -20 -20 -20 -20
13 11 -20 -20 -20 -20 -20 -15 15 12 -20 -16 -10 9 27 21 -0 -1 18 6 -20 -20 -20 -20 -20 -20 -20 -20 -20 -20 -20 -20 -20 -5 -17 -20 -20 -7 -16 -20 -20 -20 -20 -20
-13 -20 -20 -20 -20 -13 -20 -20 -14 -20 -20 -19 -12 1 24 14 35 26 3 20 -4 -20 -20 -20 -20 -20 -20 -20 -20 -20 -20 -20 -20 -2 -20 8 -20 -14 -17 -20 -20 -20 -20 -20
-17 -20 -20 -20 -20 9 21 -3 13 -14 -18 -20 -20 5 6 21 18 27 23 29 27 -3 -20 -20 -20 -20 -20 -20 -20 -20 -20 -20 -20 -20 -20 -20 -13 -20 -20 -20 -20 -20 -20 -20
-20 -20 -20 -20 -20 -9 13 -20 16 -13 -8 -20 -20 12 15 17 27 24 31 14 16 11 -20 -20 -20 -20 -20 -20 -20 -20 -20 -20 -20 -20 -20 -20 -20 -20 1 -20 -20 -20 -20 -20
-20 -20 -20 -20 -20 -20 -19 -20 -19 19 24 10 -3 -10 5 11 11 17 11 5 20 -16 -4 -20 -20 -20 -20 -20 -20 -20 -20 -20 -20 -20 -20 -20 -20 7 -17 -20 -20 -20 -20 -20
-20 -20 -20 -20 -20 -20 -20 -20 -20 -20 -20 -12 6 -8 -3 -4 -20 -20 -20 29 10 -14 15 -20 -20 -20 -20 -20 -20 -20 -20 -20 -20 -20 -20 -20 -20 -20 -17 4 2 -20 -20 -20
-20 -20 -20 -20 -20 -20 -20 -20 -16 -20 -20 -20 -20 -20 -20 -20 -20 -14 6 13 12 18 6 -20 -20 -20 -20 28 11 -18 -20 -20 -20 -20 -20 -20 -20 -20 -20 -20 -20 -0 2 5
-9 -20 -20 -20 -20 -20 -20 -20 -20 -20 -20 -20 -20 -20 -20 -20 -20 -15 2 -2 -20 -19 -20 -20 -20 -20 -20 -20 -20 -17 -11 -18 1 -20 -20 -20 -20 -20 -20 -20 -20 7 -20 -20
-20 -20 -20 -11 -20 -20 -20 -20 -20 -14 7 -20 -20 -20 -20 -20 -17 -20 -20 -14 -20 -20 -20 -20 -20 -20 -20 -20 -20 -20 -20 9 -10 -20 -20 23 22 -20 -20 -20 -20 -20 13 -20
-20 -20 -19 -19 4 -20 8 -20 -20 -20 -16 -16 -20 -20 -20 -20 -18 -18 -20 7 -20 -20 -20 -19 -18 -20 -20 -20 -20 -20 -20 22 25 -14 -20 24 -20 -20 -20 -20 -12 -20 -20 -20
-16 5 -17 -20 3 -20 2 -20 -20 4 12 -11 -20 -20 5 9 24 -18 -9 19 -20 -20 -20 -20 -20 -18 -20 -20 -20 -20 -20 -20 18 -20 22 9 3 11 -15 -19 -20 -20 -2 -11
0 -9 -11 -1 16 -15 -20 -4 -2 39 19 -20 -20 -20 12 25 39 23 -19 -15 8 19 31 4 -11 -16 -20 -20 -20 -20 -20 -20 -20 20 24 26 29 29 12 -18 -18 -5 -10 10
-20 -18 -18 -20 -20 -19 -20 -20 -18 -18 -20 -20 -20 -20 -16 -20 35 43 30 21 -15 -20 -13 -19 -20 -20 -20 -20 -20 -14 -9 6 -19 10 22 26 26 27 24 11 -2 -2 0 12
13 13 -7 13 13 6 27 -12 20 -3 -20 -20 -20 -20 -20 5 -5 20 34 -6 -16 -4 -20 -20 -20 -20 -20 -20 -20 -20 6 13 18 -18 10 20 19 23 22 23 23 23 29 27
-5 28 29 24 9 -5 -20 -10 -7 -20 -20 -20 -20 -20 -12 -2 18 16 -0 3 -11 9 -10 -20 -20 -20 -20 -20 -20 -19 -14 6 12 -5 -7 23 22 22 17 11 -0 2 15 30
-2 27 35 24 36 26 -11 -20 -13 -20 -20 -20 -20 -20 -20 -16 -10 5 12 3 -6 -1 -20 -20 -20 -20 -20 -20 -20 -20 -20 -8 6 19 -9 12 11 23 33 15 17 20 24 33

GFSCGP_prec_radar_096.txt.gz
Reflectivity
-20 -19 -20 -20 -20 -20 -20 -20 -20 -20 -20 -20 -20 -20 -20 -20 -20 -20 -20 -20 -20 -20 -20 -20 -20 -20 -20 -20 -20 -20 -20 -20 -20 -20 -7 6 -19 -20 -5 24 7 26 8 -11
-20 -20 -20 -20 -20 -20 -20 -20 -20 -20 -20 -20 -20 -20 -20 -20 -20 -20 -20 -20 -20 -20 -20 -20 -20 -20 -20 -20 -20 -20 -20 -20 -20 -20 -20 -20 -20 -20 -18 6 13 7 30 29
-20 -20 -20 -20 -20 -20 -20 -20 -20 -20 -20 -20 -20 -20 -20 -20 -20 -20 -20 -20 -20 -20 -20 -20 -20 -20 -20 -20 -20 -20 -20 -20 -20 -20 -20 0 6 4 -5 -18 -20 -9 10 16
-20 -20 -20 -20 -20 -20 -20 -20 -20 -20 -20 -20 -20 -20 -20 -20 -20 -20 -20 -20 -20 -19 -20 -20 -20 -20 -20 -20 -20 -20 -20 -20 -20 -20 -20 -20 12 5 -7 -6 -7 -17 -17 21
-20 -20 -20 -20 -20 -20 -20 -20 -20 -20 -20 -20 -20 -20 -20 -20 -20 -20 -20 -20 -20 -7 -20 -20 -20 -20 -20 -20 -20 -20 -20 -20 -20 -20 -20 -19 -18 -20 -20 6 16 9 18 16
-20 -20 -20 -20 -20 -20 -20 -20 -20 -20 -20 -20 -20 -20 -20 -20 -20 -20 -20 -20 4 -19 -20 -20 -20 -20 -20 -20 -20 -20 -20 -18 -20 -20 -20 -20 6 -20 -20 -16 -4 10 21 21
-20 -20 -20 -20 -20 -20 -20 -20 -20 -20 -20 -20 -20 -20 -20 -20 -20 -20 -20 -20 -20 -20 -20 -20 -20 -20 -20 -20 -20 -20 -20 8 -20 -20 -20 -20 -20 -20 -20 -20 -20 7 8 21
-20 -20 -20 -20 -20 -20 -20 -20 -20 -20 -20 -20 -20 -20 -20 -19 -17 -20 -20 -20 -20 -20 -20 -20 -20 -20 -20 -20 -20 -20 -20 -11 -20 -20 -20 -20 -20 -20 -20 -16 -17 -4 9 27
-20 -20 -20 -20 -20 -20 -20 -20 -20 -20 -20 -17 -20 -20 -20 1 -11 -17 -18 -18 13 -8 -20 -20 -20 -20 -20 -20 -20 -20 -20 -20 -20 -20 -20 -20 -20 -20 -20 8 -20 -20 -20 -7
-20 -20 -20 -20 -20 -20 -20 -20 -20 -20 -20 -17 -20 -20 -20 7 26 -7 24 19 -19 -20 -20 -19 -20 -20 -20 -20 -20 -20 -20 -20 -20 -20 -20 -20 -20 -20 -20 -20 -20 -20 -20 -20
-20 -20 -20 -20 -20 -20 -20 -20 -20 -19 -20 -9 -20 -20 -20 19 17 33 22 -7 -16 8 15 -9 -2 -20 -20 -20 -20 -20 -20 -20 -20 -20 -20 -20 -20 -20 -20 -20 -20 -20 -20 -20
3 -20 -20 -20 -11 -20 -20 -20 -20 -20 -20 -20 -20 -20 16 25 29 32 25 -9 4 -20 -17 7 3 -20 -20 -20 -20 -20 -20 -20 -20 -20 -20 -20 -20 -20 -20 -20 -20 -18 -20 -20
10 -20 -19 9 18 -19 -6 -20 -20 -20 -20 -6 -20 9 26 27 24 27 28 -18 5 8 -20 -17 -18 -20 -20 -20 -20 -20 -20 -20 -20 -20 -20 -10 -20 -20 -20 -20 -5 -20 -20 -20
15 -16 -20 -5 -20 -14 -20 -20 -20 -20 -20 -20 -20 4 27 13 18 15 18 29 13 -20 -20 -20 -19 -19 -20 -20 -20 -20 -20 -20 -20 -20 -20 -17 -2 -20 -12 -20 -20 -20 -20 -20
-19 6 -20 -20 -20 -20 -20 13 12 -20 -20 -20 -20 -8 12 -1 -13 11 30 24 37 22 -6 -20 -20 -20 -20 -20 -20 -20 -20 -20 -20 -20 -20 -20 -14 -4 -14 -18 10 -14 -20 -20
9 4 -20 -20 -20 -20 -20 -20 -15 7 -4 10 4 7 -1 -20 -20 14 15 10 22 14 -1 -20 -20 23 -19 -16 -15 -17 28 10 -3 -20 -20 -20 -20 6 -3 -0 -20 -17 -20 -20
-13 -6 -20 -20 -20 -20 -19 -8 13 4 -0 7 -20 -16 -15 -18 -1 -6 -1 -1 -3 23 -20 -20 9 21 -15 15 30 22 30 29 21 18 -16 -6 -20 -20 -20 -14 2 -13 -19 -20
-20 -20 -20 -20 -20 -20 -2 -10 -20 -20 -9 -20 -20 -20 -19 -18 -12 1 6 -12 3 17 21 -20 -20 -20 -3 1 -11 -1 10 7 -0 14 10 4 -20 2 -4 -20 -20 3 7 -20
-20 -20 -20 -20 -20 -20 -20 -20 10 -17 -18 6 -20 -20 -20 -10 8 -14 -17 -20 -7 -20 18 -10 -20 -20 -10 -18 -20 -20 -20 -19 23 22 -8 -4 33 -20 -20 -17 -20 -17 -1 3
-20 -20 -20 -20 -20 -20 8 -20 -20 -20 13 -11 -20 -20 -20 -19 1 -18 11 -0 -10 12 19 12 5 -20 -20 -20 -20 1 -20 -20 -20 23 -5 20 20 27 26 -15 -13 -20 0 -17
-20 -20 -20 -20 -20 -20 -20 -20 -20 -12 -11 -20 -20 -20 -20 -15 -6 0 19 5 19 -15 -18 5 -20 -20 -20 -20 -20 -20 -20 -20 -12 -20 -9 -16 25 19 16 22 23 -1 -20 -8
-8 -17 -2 -19 4 -20 -20 -20 -20 -20 -7 -13 -20 -20 -20 -19 -17 17 33 22 27 -12 -20 -20 -20 -20 -20 -20 -20 -20 -20 -20 -18 -20 -20 -20 -19 24 23 23 30 12 7 -7
19 -20 -20 -20 -20 -20 -20 -20 -20 -20 -20 -20 -20 -20 -20 -20 -20 1 36 36 9 -8 -20 -20 -20 -20 -20 -20 -20 -20 -20 -20 -15 0 -19 -20 -2 -4 22 25 26 28 25 28
28 22 7 12 6 -17 -20 -14 -20 -20 -20 -20 -20 -20 -20 -20 -20 -20 8 10 30 16 1 -20 -20 -20 -20 -20 -20 -20 -20 -20 -16 -2 4 -5 -5 22 30 25 25 25 33 40
-3 -12 22 19 38 -8 -20 -10 -20 -20 -20 -20 -20 -20 -20 -20 -20 -20 -20 -4 11 19 -10 -20 -20 -20 -20 -20 -20 -20 -20 -20 -20 -20 -16 -20 -1 5 13 21 25 26 27 35
3 -4 -20 31 33 19 -11 -20 -20 -20 -20 -20 -20 -20 -20 -20 -20 -20 -20 -19 -8 6 4 -20 -20 -20 -20 -20 -20 -20 -20 -20 -20 -20 -20 -16 -20 -20 -12 1 19 28 28 30

GFSCGP_prec_radar_099.txt.gz
Reflectivity
-20 -20 -20 -20 -20 -20 -20 -18 -20 -20 -20 -20 -20 -20 -20 -20 -20 -20 -20 -20 -20 -20 -20 -20 -20 -20 -20 -20 -20 -20 -20 -20 -20 -20 -20 -20 -20 -20 3 9 19 -20 16 12
-20 -20 -20 -20 -20 -20 -20 -20 -20 -20 -20 -20 -20 -20 -20 -20 -20 -20 -20 -20 -20 -20 -20 -20 -20 -20 -20 -20 -20 -20 -20 -20 -20 -20 -20 -20 -20 -20 -7 -5 26 19 17 23
-20 -20 -20 -20 -20 -20 -20 -20 -20 -20 -20 -20 -20 -20 -20 -20 -20 -20 -20 -20 -20 -20 -20 -20 -20 -20 -20 -20 -20 -20 -20 -20 -20 -20 -20 -20 -20 -20 -20 -6 10 7 15 33
-20 -20 -20 -20 -20 -20 -20 -20 -20 -20 -20 -20 -20 -20 -20 -20 -20 -20 -20 -20 -20 -20 -20 -20 -20 -20 2 -20 -20 -20 -20 -20 -20 -20 -20 -20 -20 -20 -20 -20 -10 12 17 21
-20 -20 -20 -20 -20 -20 -20 -20 -20 -20 -20 -20 -20 -20 -20 -20 -20 -20 -20 -20 -20 -20 -20 -20 -20 -20 2 -20 -20 -20 -20 -20 -20 -20 -20 -20 -20 -20 -20 -20 -14 -20 -5 19
-20 -20 -20 -20 -20 -20 -20 -20 -20 -20 -20 -20 -20 -20 -20 -20 -20 -20 -20 -20 -20 -20 -20 -20 -20 -20 -12 -20 -20 -20 -20 -20 -20 -20 -20 -20 -20 -20 -20 -10 -20 -20 -20 -20
-20 -20 -20 -20 -20 -20 -20 -20 -20 -20 -20 -20 -20 -20 -20 -20 -20 -20 -20 -20 -20 -20 -20 -20 -20 -20 1 -20 -20 -20 -20 -20 -3 -13 -20 -20 -20 -20 -20 -20 -6 -20 -15 -12
-20 -20 -20 -20 -20 -20 -20 -20 -20 -20 -20 -20 -20 -20 -20 -20 -20 -20 -20 -20 -20 -20 -20 -20 -20 6 -9 -20 -20 -20 -20 -20 8 -13 -20 -20 -20 -20 -20 -20 -20 -11 -16 -11
-20 -20 -20 -20 -20 -20 -20 -20 -20 -20 -20 -18 -20 -20 -20 -20 -20 -20 -20 -20 -20 -20 -20 -20 -19 13 -20 -20 -20 -20 -20 -20 -1 -18 -20 -20 -20 -20 -20 -20 -20 -20 -20 -16
-20 -20 -20 -20 -20 -20 -20 -20 -20 -20 -19 -0 -20 -20 -20 -20 -20 -20 -20 -20 -20 -20 -15 -6 6 9 -20 -20 -20 -20 -20 -20 -2 -16 -20 -20 -20 -20 -20 -20 -20 -20 -18 20
-20 -20 -20 -20 -20 -20 -20 -20 -20 -20 -20 7 -14 -20 -20 -20 -20 -20 -7 32 -16 15 10 8 24 2 -20 -20 -20 -20 -20 -20 -18 -19 -20 -20 -20 -20 -20 -20 -9 -20 -20 -20
-20 -20 -20 -20 -20 -20 -20 -20 -20 -20 -20 -20 -19 -20 -20 -20 -20 -20 30 36 17 22 5 4 -1 -20 -20 -20 -20 -20 -20 -20 -20 -20 -20 -20 -20 -20 -20 -20 -20 -20 -20 -20
15 -16 -20 -20 -20 -20 -20 -20 -20 -20 -20 -20 4 -16 -20 -20 -19 4 19 38 8 7 -16 -20 -20 -19 -20 -20 -20 -20 -20 -20 -20 -16 -20 -20 -20 -20 -20 -20 -20 -20 -20 -20
1 -20 -1 4 -20 -20 -4 -20 -20 -20 -20 -20 -20 -20 -20 -10 -20 6 24 34 33 2 -20 -16 -14 -19 -20 -20 -20 -20 -20 -19 2 -20 -11 -20 -20 -20 -20 -20 -20 -20 -20 -20
10 8 23 19 -8 2 28 14 13 -20 -20 -20 -20 -20 -14 3 -20 -15 18 27 37 14 -7 -20 -20 -20 -19 -20 16 28 26 25 -2 27 -20 -20 -20 -20 -20 -20 -20 -20 -20 3
11 23 18 11 -20 -20 -20 -20 -20 -20 -20 -20 -1 -10 -20 11 -9 27 18 28 21 33 -17 -20 10 -14 -20 -18 -17 25 27 31 -9 -20 8 -17 -20 -20 -20 -20 -20 -20 -20 -4
16 15 1 -10 -20 -20 -20 -20 -20 -20 -20 -20 5 12 10 5 1 28 17 20 17 25 33 22 16 24 15 -11 29 18 -1 29 29 28 20 -11 -18 -20 -17 -14 -20 -20 -20 -20
8 3 -19 -20 -20 -20 -20 16 -20 -12 -9 -20 -3 -10 -20 -20 24 13 19 21 16 18 25 29 13 -3 23 -6 -20 -18 26 17 28 29 19 24 3 -2 -20 -1 4 -3 -8 -20
-12 -14 -20 -20 -20 -20 19 -20 -18 -7 28 12 -12 -20 -20 -20 -12 -17 2 14 1 3 -19 -9 7 -18 -16 -8 4 17 19 -8 -14 -10 19 18 17 -2 2 27 26 16 14 10
-20 -20 -20 -20 -20 -20 -20 -20 -20 -20 23 -20 -20 -5 -20 -20 -20 -19 -20 -8 5 3 -20 -20 -20 -20 -20 -20 -20 -20 -20 -20 -20 8 17 -15 -18 -13 9 -19 -20 19 20 16
-20 -18 -5 -12 -20 -20 -20 -20 -20 -15 -20 -20 -20 -20 11 -15 -6 -15 -2 17 13 3 -4 -20 -20 -20 -20 -20 -20 -20 -20 -20 -20 -20 -20 7 13 10 7 4 5 17 4 -12
-18 -14 -0 8 -7 -20 -20 -20 -20 -20 -20 -20 -20 -20 -20 -11 -20 -20 -3 15 33 17 30 -20 0 -12 -20 -20 -20 -20 -20 -20 -20 -20 -20 -20 -20 -15 -4 17 18 19 13 25
20 21 -12 -20 -20 -20 -20 -20 -20 -20 -20 -20 -20 -20 -20 -20 -20 -20 -20 3 21 20 33 4 -20 -20 -20 -20 -20 -20 -20 -20 -20 -20 -20 -20 -20 -3 13 16 19 21 16 22
39 35 11 -20 12 -19 -20 -20 -20 -20 -20 -20 -20 -20 -20 -20 -20 -19 -10 -11 23 27 33 21 3 -15 -20 -20 -20 -20 -20 -20 2 -7 -20 -20 -20 -13 -9 9 24 28 22 21
24 32 38 25 27 22 -3 -5 5 -20 -20 -20 -20 -20 -20 -20 -20 -13 12 -1 4 14 -20 -17 -8 -2 -20 -20 -20 -20 -20 -20 -20 -20 -20 -20 -20 -20 -20 -11 -0 7 24 32
22 15 -17 -8 23 2 31 3 -20 -20 -20 -20 -20 -20 -20 -20 -20 -18 -5 9 12 7 12 -11 -20 -20 -20 -20 -20 -20 -20 -20 -20 -20 -20 -20 -20 -20 -20 -20 -9 9 13 0

GFSCGP_prec_radar_102.txt.gz
Reflectivity
-13 -13 -20 -20 -20 -20 -20 -20 -20 -20 -20 -20 -20 -20 -20 -20 -20 -20 -20 -20 -20 -20 -20 -20 -20 -20 -20 -20 -20 -20 -20 -20 -20 -20 -20 -15 -0 16 15 3 11 4 8 -20
14 16 2 -1 -20 -20 -20 -20 -20 -20 -20 -20 -20 -20 -20 -20 -20 -20 -20 -20 -20 -20 -20 -20 -20 -20 -20 -20 -20 -20 -20 -20 -20 -20 -20 -20 -19 -7 -14 11 17 15 10 -0
8 0 -15 -20 -20 -20 -20 -20 -20 -20 -20 -20 -20 -20 -20 -20 -20 -20 -20 -20 -20 -20 -20 -20 -20 -20 -20 -20 -20 -20 -20 -20 -20 -20 -20 1 -14 -18 -20 3 -2 9 -4 13
-17 -19 -19 -20 -20 -20 -20 -20 -20 -20 -20 -20 -20 -20 -20 -20 -20 -20 -20 -20 -20 -20 -20 -20 -20 -20 -20 -20 -20 -20 -20 -20 -20 -20 -8 -11 -20 -20 -20 -20 6 -20 8 29
-10 -16 -10 -5 -15 0 -20 -20 -20 -20 -20 -20 -20 -20 -20 -20 -20 -20 -20 -20 -20 -20 -20 -20 -20 -20 -20 -20 -20 -20 -20 -20 -20 13 -18 -18 -20 -20 -20 -20 -20 16 6 1
-14 -20 -18 -20 -20 -20 -20 -20 -20 -20 -20 -20 -20 -20 -20 -20 -20 -13 -19 -20 -20 -20 -20 -20 -20 -20 -20 -20 -20 -20 -20 -20 5 9 -20 -20 -20 -20 -20 -20 -20 -20 -20 -1
-20 -20 -20 -20 -20 -20 -20 -20 -20 -20 -20 -20 -20 -20 -20 -20 -20 -20 -20 -20 -20 -20 -20 -20 -20 -20 -20 -20 -20 -20 -20 -20 -2 -17 -20 -20 -20 -20 -20 -20 -20 -20 -20 -20
-20 -20 -20 -20 -20 -20 -20 -20 -20 -20 -20 -20 -20 -20 -20 -20 -20 -20 -20 -20 -20 -20 -20 -20 -20 -20 -20 -20 -20 -20 -20 1 -16 -20 -20 -20 -20 -20 -20 -20 -20 -20 -20 -20
-20 -20 -20 -20 -20 -20 -20 -20 -20 -20 -20 -20 -20 -20 -20 -20 -20 -20 -20 -20 -20 -20 -20 -20 -20 -20 -20 -20 -19 -20 -20 -20 -20 -20 -3 -20 -20 -20 -20 -20 -20 -20 -20 -20
-20 -20 -20 -20 -20 -20 -20 -20 -20 -20 -20 -20 -20 -20 -20 -20 -20 -20 -20 -20 -20 -20 -20 -20 -20 -20 -20 -20 3 -6 -20 -20 -20 -20 5 -20 -20 -20 -20 -20 -20 -20 -20 -11
-20 -20 -20 -20 -20 -20 -20 -20 -20 -20 -20 -20 -20 -20 -20 -20 -20 -20 -20 -20 -20 -20 -20 -20 -20 -20 -20 13 -18 -2 -1 -20 -20 -19 3 -20 -20 -20 -20 -20 -20 -20 -20 -20
-20 -20 -20 -20 -20 -20 -20 -20 -20 -20 -20 -20 -20 -20 -20 -20 -20 -20 -20 -20 -20 9 20 -20 -20 -20 7 -2 -20 16 -2 -20 -20 -18 13 -19 -20 -20 -20 -20 -20 -20 -20 -20
-20 -20 -16 -20 -20 -20 -20 -20 -20 -20 -20 -20 -20 -20 -20 -20 -20 -20 -12 -20 -10 35 27 -20 -20 11 20 -10 13 10 3 -20 20 -20 9 -20 -20 -20 -20 -20 -20 -20 -20 -20
-20 -20 -20 -20 -20 -20 -20 -20 -20 -20 -20 -20 -20 -20 -20 -20 -20 -20 -20 -20 18 34 34 12 24 20 -9 11 12 22 16 -9 3 3 9 -20 -20 -20 -20 -20 -20 -20 -20 -20
13 -20 -20 -20 -20 -20 -20 -17 -20 -20 -20 -20 -20 -20 -20 -20 -20 -20 -10 -2 26 37 34 16 21 25 27 7 19 7 -20 6 -20 -18 12 3 -20 -20 -20 -20 -20 -20 -20 -20
25 11 19 -20 -20 -14 -10 -2 -20 -16 -20 11 1 -20 -20 -20 -20 6 -6 2 24 32 37 32 24 26 26 24 27 -20 -11 11 27 22 20 3 14 -20 -20 -20 -20 -20 -20 -20
18 15 9 -20 -20 -15 -20 -20 -20 -17 -20 -20 -20 -20 -20 4 -3 -2 -2 3 19 24 33 31 5 11 21 24 18 14 28 22 27 24 22 8 -20 -20 -20 -20 -20 -20 -20 -20
-20 -8 -20 -20 -17 -20 1 -20 -20 -20 -15 -17 -20 -20 -20 -20 15 10 -1 11 16 14 24 31 26 25 14 1 9 14 26 30 24 29 22 24 4 -20 -5 -20 -20 -20 -20 -20
-20 -20 -20 -20 4 -20 -7 6 13 -9 -17 -3 18 25 -20 -20 -7 -10 -8 -7 9 15 14 23 25 25 25 32 29 22 21 20 8 3 13 36 31 24 8 -19 -20 -20 -20 -20
-20 -20 -20 -20 -20 -20 -20 -17 -20 -16 -18 -20 -20 -12 -20 -20 2 1 -10 -19 -0 11 16 12 17 22 18 6 17 5 -7 11 24 19 13 21 12 10 -12 -11 -1 10 -18 -20
-20 -20 -8 -20 -20 -20 -20 -20 -20 -16 -20 -20 -20 -20 -20 -20 6 -4 16 -1 0 11 4 11 8 9 5 -14 -20 -7 -2 -18 -4 7 7 12 10 11 9 11 17 6 -5 -6
-20 -20 -14 -4 -5 -20 -20 -20 -20 -20 -20 -20 -20 -20 -20 -20 -13 -16 -20 1 3 8 21 1 8 -3 -9 -20 -20 -20 -20 -20 -20 -20 -20 -20 -20 -14 -19 -15 8 7 18 15
-0 31 13 -20 -20 -20 -20 -20 -20 -20 -20 -20 -20 -20 -20 -20 -20 -2 -20 -15 18 19 30 30 27 13 -6 -20 -20 -20 -20 -19 -4 2 3 -19 -20 -20 -20 -4 5 15 20 29
-4 6 31 -3 16 -4 -18 -20 -20 -20 -20 -20 -20 -20 -20 -20 -20 2 -2 2 3 23 20 -6 13 16 -11 -18 -20 -20 -20 -20 -20 -20 -20 -20 -20 -19 -3 7 10 9 -3 2
3 29 28 17 29 24 -6 -1 26 -12 -20 -20 -20 -20 -20 -20 -20 -19 -15 5 9 19 17 16 17 11 -6 -13 -19 -20 -20 -20 -20 -20 -20 -20 -20 -20 -16 -7 -9 -11 -1 17
22 18 19 23 26 32 17 24 0 -20 -20 -20 -20 -20 -20 -20 -20 -18 -6 -3 -3 8 10 1 7 1 -17 -20 -20 -20 -20 -20 -20 -20 -20 -20 -20 -20 -20 -20 -15 -3 -2 3

GFSCGP_prec_radar_108.txt.gz
Reflectivity
-20 -20 -20 -20 -20 -20 -5 -5 -20 -20 -20 -20 -20 -20 -20 -20 -20 -20 -20 -20 -20 -20 -20 -20 -20 -20 -20 -20 -20 -20 -20 -20 -20 1 -20 -20 -20 -19 -9 3 -10 1 1 8
-20 -20 -20 -20 -20 -12 12 14 -8 -19 15 -10 -20 -20 -20 -20 -20 -20 -20 -20 -20 -20 -20 -20 -20 -20 -20 -20 -20 -20 -20 -20 -20 -15 -20 -3 1 -15 2 1 7 4 5 7
-20 -20 -20 -20 -3 -8 3 -11 -9 13 2 -3 -8 -20 -20 -20 -20 -20 -20 -20 -20 -20 -20 -20 -20 -20 -20 -20 -20 -20 -20 -20 -20 -20 -10 -6 1 2 -1 4 3 -0 9 5
-20 -20 -20 -3 -2 -9 -7 -20 0 12 26 8 -15 -20 -20 -20 -20 -20 -20 -20 -20 -20 -20 -20 -20 -20 -20 -20 -20 -20 -20 -20 -20 -20 -20 -16 -20 -20 -20 -2 -6 3 5 2
-20 -20 -20 -20 -19 12 10 11 2 -0 -20 -15 -18 -19 -20 -20 -20 -20 -20 -20 -20 -20 -20 -20 -20 -20 -20 -20 -20 -20 -20 -20 -20 -20 -19 -10 -20 -20 -20 -20 -6 2 5 3
-20 -20 -20 -20 -14 5 10 7 3 -9 0 -15 -19 -5 -20 -20 -20 -20 -20 -20 -20 -20 -20 -20 -20 -20 -20 -20 -20 -20 -20 -20 -19 -20 -12 -2 -20 -20 -20 -20 0 -18 -4 7
-20 -20 -20 -20 -20 -3 -19 -20 -7 -11 -20 -20 -20 -20 -20 -20 -20 -20 -20 -20 -20 -20 -20 -20 -20 -20 -20 -20 -20 -20 -20 -20 -8 -7 7 -2 -20 -20 -20 -20 -20 -20 -13 -6
-20 -20 -20 -20 -20 -20 -12 0 0 -11 -20 -20 -20 -18 -20 -20 -20 -20 -20 -20 -20 -20 -20 -20 -20 -20 -20 -20 -20 -20 -20 -20 -18 -3 -0 -13 1 -20 -20 -20 -20 -18 -2 3
-20 -20 -20 -20 -20 -20 -12 -9 -6 -17 -20 -20 -20 -20 0 5 -0 -8 -20 -20 -20 -20 -20 -20 -20 -20 -20 -20 -20 -20 -20 -20 -7 -20 3 -6 -4 -20 -20 -20 -20 -20 -5 0
-20 -20 -20 -20 -20 -20 -20 -20 -4 -18 -20 -20 -20 -20 -20 -20 -20 -20 -20 -20 -20 -20 -20 -20 -20 -20 -20 -20 -20 -20 -20 -20 -10 -20 4 -14 -7 -20 -20 -20 -20 -11 -3 7
-20 -20 -20 -20 -20 -20 -20 -20 -20 -20 -20 -20 -20 -20 -20 -20 -20 -20 -20 -20 -20 -20 -20 -20 -20 -20 -20 -20 -20 -20 -20 -20 -7 -20 -14 13 -20 -20 -20 -11 -20 -20 -5 3
-20 28 -18 -19 -20 -20 -20 -20 -20 -20 -20 -20 -20 -20 -20 -20 -20 -20 -20 -20 -20 -20 -20 -20 -20 -20 -20 -20 -20 -20 11 -15 13 -3 4 11 -20 -20 -20 -14 -20 -16 -1 -2
26 -8 11 21 -14 -16 -20 -20 -20 -20 -20 -20 4 -14 -20 -20 -20 -20 -20 -20 -14 7 -1 -20 -20 -20 -20 -20 14 19 9 12 13 -3 -13 2 -5 -17 -20 -19 -20 -20 -2 1
-9 -6 21 19 13 -13 4 -20 -20 -20 5 -20 -20 -20 -20 -20 -20 -20 -19 -13 -20 -16 -20 -20 -20 -20 -20 -1 7 17 16 7 -16 -20 -8 -17 27 -11 -13 -20 -20 -18 -20 -2
-6 -10 -20 -20 -20 -20 -20 -11 -20 -20 -20 -19 -20 -20 -20 -20 -20 -12 -19 -19 -17 -20 -20 -20 -20 -20 -18 14 23 4 24 -4 0 10 19 23 24 -19 -17 -20 -16 -20 -20 -17
9 8 -20 -20 -20 -20 -20 -20 -20 -20 -20 -20 -20 -20 -20 4 -20 -20 -20 -20 -20 -20 -9 -20 -20 -20 -7 29 20 11 28 20 12 17 24 24 13 -16 -20 -9 -8 -20 -20 -20
5 20 1 7 -11 -1 -20 -20 -20 -20 -20 -20 -20 11 -20 -20 -13 -5 -4 -20 -20 -20 -20 -20 -4 24 28 27 27 12 24 27 19 22 26 23 -8 -20 -20 -20 -20 -16 -12 -3
20 6 14 12 -7 -1 11 -15 -20 -20 -6 -20 -20 -6 -20 -11 -2 -5 -5 -5 -13 -20 -19 -2 1 32 36 33 29 30 28 27 24 32 27 22 -12 -12 -20 -20 -20 -20 -20 -20
-15 7 17 15 10 -16 -20 -9 20 14 5 -0 -4 14 4 -20 -20 -1 -16 -20 -20 -17 -5 -1 4 33 40 38 31 39 29 17 29 7 4 20 15 1 -15 -20 -20 -4 -4 -8
11 -0 14 11 8 6 21 35 -6 25 13 10 -8 -8 -10 4 13 7 -19 -20 -20 -9 -7 9 4 32 36 40 42 36 24 13 35 17 27 10 -11 -10 -0 15 2 -4 -16 -16
20 20 18 14 9 -20 -20 16 14 23 9 -4 -20 -20 -20 -14 -1 -8 -20 -20 -16 -3 -0 7 1 20 25 36 42 39 34 36 33 37 35 38 29 29 23 24 20 10 6 4
20 18 18 18 7 -20 -20 9 1 5 -20 -20 -20 -20 -19 -8 -20 -20 -20 -20 -20 -14 -6 4 12 7 29 26 37 34 38 35 43 43 16 -5 14 10 -1 4 7 -9 6 2
24 18 17 21 19 -3 -16 -18 -19 -18 -20 -20 -20 -20 -20 -20 -20 -20 -20 -20 -12 -0 6 6 2 16 20 29 32 23 30 34 25 10 -17 -20 -20 -20 -11 1 -17 -19 -1 19
21 -11 6 3 19 14 4 6 9 -20 -20 -20 -20 -20 -20 -20 -20 -20 -20 -20 -16 7 17 19 9 7 17 17 15 12 18 0 16 -9 -20 -20 -19 -18 -20 -20 -20 -20 -15 -4
-8 -9 -1 8 21 23 9 4 12 -2 -20 -20 -20 -20 -20 -20 -20 -20 -20 -20 -20 -13 14 23 23 20 16 13 23 18 14 13 13 -7 -20 -20 -20 -20 -20 -18 -5 -9 -3 0
-1 2 12 7 3 0 5 0 -10 -20 -20 -20 1 -20 -20 -20 -20 -20 -20 -20 -20 -20 -17 2 19 16 6 -3 10 6 -1 -3 1 7 7 -8 -20 -19 -20 -20 -15 0 0 4

GFSCGP_prec_radar_111.txt.gz
Reflectivity
-20 -20 -20 -20 -20 -20 -20 -7 3 -9 13 8 -20 -20 -20 -10 -8 -20 -20 -20 -20 -20 -20 -20 -20 -20 -20 -20 -20 -20 -20 -20 -20 -20 -20 -20 -20 -20 -14 -20 -20 -20 -20 -3
-20 -20 -20 -20 -20 -20 -20 -3 -10 -20 16 18 -20 -20 -20 -20 -20 -20 -20 -20 -20 -20 -20 -20 -20 -20 -20 -20 -20 -20 -20 -20 -20 -20 -20 -20 -20 -20 -20 -20 -20 -20 -20 -20
-20 -20 -20 -20 -20 -20 -20 -20 -20 -20 15 17 -9 -20 -20 -20 -20 -20 -20 -20 -20 -20 -20 -20 -20 -20 -20 -20 -20 -20 -20 -20 -20 -20 -20 -16 -5 7 11 -15 -9 -9 -20 -20
-20 -20 -20 -20 -20 -20 -20 -20 -8 16 22 0 -12 0 -20 -20 -7 -20 -20 -20 -20 -20 -20 -20 -20 -20 -20 -20 -20 -20 -20 -20 -20 -20 -20 -3 -20 -20 -19 -18 -16 -19 -5 -4
2 -20 -20 -20 -20 -20 -20 8 9 5 8 2 -5 6 -15 7 -20 -6 7 -20 -20 -20 -20 -20 -20 -20 -20 -20 -20 -20 -20 -20 -20 -20 -20 -11 -16 -0 -12 -20 -20 -20 3 -15
-4 -18 -20 -20 -20 -20 -14 -15 -19 -4 -3 -6 -20 -20 -20 -14 7 -15 -18 -20 -20 -20 -20 -20 -20 -20 -20 -20 -20 -20 -20 -20 -20 -20 -20 -13 -17 -13 -20 -20 -20 -20 6 9
19 23 -20 -20 -20 -20 -20 -20 3 7 -3 -20 -20 -20 -20 -20 7 8 6 -20 -20 -20 -20 -20 -20 -20 -20 -20 -20 -20 -20 -20 -20 -20 -20 -11 -20 7 -20 -16 -19 -20 -1 8
-18 20 14 -20 -20 -20 -20 -20 -17 -3 -11 -20 -5 -15 -20 -12 -20 -1 -7 15 9 -9 -20 -20 -20 -20 -20 -20 -20 -20 -20 -20 -20 -20 -17 -17 -20 -20 -7 -18 -20 -20 -20 -6
-2 -3 7 -19 -3 0 -20 -20 -2 -20 -20 9 16 4 5 -3 3 -10 6 -19 -17 -20 -20 -20 -20 -20 -20 -20 -20 -20 -20 -20 -20 -20 -18 2 -20 -19 8 -8 -20 -20 -20 -20
24 12 -7 -20 -1 -10 -0 -20 -18 -20 -20 0 -3 1 -2 -20 -20 -20 -20 -20 -20 -20 -20 -20 -20 -20 -20 -20 -20 -20 -20 -20 -20 -20 -19 9 -20 5 3 -12 -20 -20 -20 -20
4 4 -9 -20 -20 -20 -20 -20 -20 -20 -20 -6 -8 10 13 -20 -19 -19 -20 -3 -20 -7 -20 -20 -18 -20 -20 -20 -20 -20 -20 -20 -20 -20 -8 10 -20 -2 -4 -19 -20 -20 -20 -20
2 15 13 -20 -20 -20 -20 -20 -20 -20 -20 -16 3 23 16 7 -6 3 -14 -20 -20 -20 -20 -20 -20 -20 -20 -20 -20 -20 -20 -19 -19 -20 1 9 -20 -12 14 -19 -20 -20 -20 -20
2 27 22 32 -5 -20 -20 -20 -20 -20 -8 13 -15 -9 -17 -15 -20 -20 -20 -20 -20 -20 -20 -20 -20 -20 -20 -20 -20 -20 -15 -20 -4 6 10 3 -8 15 6 -20 -20 -20 -20 -20
8 -3 17 21 18 12 12 -10 -20 -20 -20 -20 6 15 10 14 -19 4 -20 -20 -20 -20 -20 -20 -20 -20 -20 -20 -20 -20 2 -8 10 13 5 14 18 22 -2 -19 -2 -20 -2 -20
-6 23 18 22 23 17 31 9 7 3 -9 13 7 5 31 34 -6 -20 -20 -20 -20 -20 -20 -20 -20 -20 -20 -20 -20 -20 17 8 18 7 10 19 6 18 10 11 -20 -20 -17 -12
-16 11 -20 -12 -15 -20 -14 -20 -20 -20 -20 -20 -18 8 -19 -20 -20 -20 -20 -20 -20 -20 -20 -20 -20 -20 -20 -20 -20 -20 21 21 21 17 18 9 26 25 25 -20 -20 1 -13 -8
4 9 4 1 -20 -20 -20 -20 -20 -20 -20 -17 5 12 23 -20 -20 -20 -20 -16 -20 -20 -20 -20 -20 -20 -6 -20 -20 18 22 17 9 18 23 20 27 29 24 -20 5 -2 11 -15
6 5 -0 13 -20 -4 -20 -20 -20 -20 15 -20 -7 14 -8 -20 -20 -20 -4 -9 -20 -18 -19 -8 -10 -20 -15 -16 -8 25 28 9 27 29 26 28 28 21 -19 8 -0 16 2 1
-12 -13 17 16 15 7 -20 4 15 24 7 -20 -5 5 8 -7 -19 -11 -17 -20 -17 -20 -18 -5 -16 -14 -4 13 20 34 31 32 28 26 21 23 15 -0 23 6 1 6 6 0
-10 13 16 20 17 19 33 -20 -20 -12 26 1 -5 -20 -20 -4 11 -4 -20 -20 -20 -20 -20 -6 0 5 15 27 28 40 37 34 33 34 15 15 20 31 11 3 -19 -6 2 -14
12 1 4 17 16 22 -10 -18 6 17 28 6 -17 -19 -20 -20 -4 -11 -20 -20 -20 -20 -13 10 13 13 25 35 34 36 38 32 39 43 26 30 32 24 27 24 14 5 -9 5
23 19 26 25 23 21 -20 8 12 27 24 -0 -20 -20 -20 -10 -20 -20 -20 -20 -20 -20 -18 -9 10 9 30 36 37 35 34 38 38 32 43 41 35 45 29 14 -0 -4 4 16
22 14 12 14 20 4 -7 -3 9 7 -9 -20 -20 -20 -6 -20 -20 -20 -20 -20 -20 -11 -5 5 12 17 18 35 36 30 36 40 40 38 43 41 38 43 37 34 35 28 9 13
24 -6 12 10 -19 -3 4 3 -5 -10 -20 -20 -20 -20 -20 -20 -20 -20 -20 -20 -20 -20 -3 13 19 22 22 20 27 31 23 28 30 31 35 37 36 38 32 18 24 24 14 20
-15 2 -10 9 6 2 -4 12 13 17 -8 -20 -20 -20 -20 -20 -20 -20 -20 -20 -20 -20 -20 -5 19 21 22 20 16 15 28 14 18 10 8 5 -1 -10 -17 -11 -6 -11 -0 14
-11 0 0 4 2 9 5 22 10 -3 -20 -18 -20 -17 -19 -20 -20 -20 -20 -20 -20 -20 -20 -20 -12 -7 12 8 16 5 8 11 11 17 16 10 4 0 -18 -19 -10 9 11 9

GFSCGP_prec_radar_114.txt.gz
Reflectivity
-20 -20 -20 -20 -20 -20 -20 -20 -20 -20 -20 -20 4 -11 -20 -20 -20 -20 -20 -4 -0 -20 -20 -20 -20 -20 -20 -20 -20 -20 -20 -20 -20 -20 -20 -20 -20 -20 -20 -20 -20 -20 -12 0
-7 -2 -20 -20 -20 -20 -20 -20 -20 -20 -20 16 19 -7 -20 -2 -20 -20 -20 -20 -20 -20 -20 -20 -20 -20 -20 -20 -20 -20 -20 -20 -20 -20 -20 -20 -20 -20 -20 -20 -20 -19 -20 -16
16 14 -20 -20 -20 -20 -20 -20 -20 -20 -7 26 -18 -1 -20 -20 -20 -20 -20 -20 -20 -20 -19 -10 -20 -20 -20 -20 -20 -20 -20 -20 -20 -20 -20 -20 -20 -20 -20 -20 -20 -0 -14 -20
31 -5 -20 -20 -20 -20 -20 -20 -20 -11 15 20 -20 -20 -20 -20 -20 -20 -20 -20 -20 -20 -20 17 -7 -20 -20 -20 -20 -20 -20 -20 -20 -20 -20 -20 -20 -20 -20 -20 -20 3 -16 -20
31 27 12 -20 -20 -20 -20 -20 -20 12 13 -19 -20 -20 -20 -20 -20 -20 14 15 -10 -20 -20 -4 -0 -20 -20 -20 -20 -20 -20 -20 -20 -20 -20 -20 -20 -20 -20 -6 -4 18 7 5
28 -8 6 -20 -20 -20 -19 6 14 -11 -20 -20 -20 -20 -20 -20 -20 -20 -2 10 11 -10 -20 -11 -8 -20 -20 -20 -20 -20 -20 -20 -20 -20 -20 -20 -20 -20 -20 -14 -11 -19 2 8
22 -17 -5 -20 16 -20 14 -16 5 -1 -6 -20 -20 -17 -20 -20 -19 -15 3 9 15 -18 -20 -20 4 12 -10 -20 -20 -20 -20 -20 -20 -20 -20 -20 -5 -20 -20 -7 -11 -4 -2 11
4 28 -8 -20 -19 -16 2 -20 -20 -19 -20 -20 -20 -2 -20 -20 -5 -19 17 25 -16 -6 -20 -20 0 6 -20 -20 -20 -20 -20 -20 -20 -20 -20 -20 -18 6 -5 1 11 0 -20 -7
23 19 16 13 -12 -7 -20 -20 -13 -10 -20 7 -20 -20 -18 -20 18 19 2 1 4 -4 -20 -18 -18 -20 -20 -20 -20 -20 -20 -20 -20 -20 -20 -20 -20 -20 1 11 14 4 -19 -3
25 23 5 25 10 -20 -6 -16 18 -14 -5 0 15 -13 12 10 16 -8 28 20 -7 -6 -20 -20 -20 -20 -2 4 -7 -16 -20 -20 -20 -20 -20 -20 -20 -20 -5 9 14 5 -7 -20
7 25 7 -13 -7 -3 -20 5 7 -20 -7 8 14 18 -2 18 12 7 22 7 -20 -19 -20 -20 -20 8 -14 -15 -20 -20 -20 -20 -20 -20 -20 -20 -20 -20 9 13 13 9 -19 -20
-1 4 25 -16 -16 -10 3 -20 -19 0 -20 -20 5 -20 -20 19 11 -14 13 -16 -20 21 -20 -20 -20 -20 -20 -20 -20 -20 -15 -11 -20 -20 -10 -20 -20 -20 12 12 14 15 -18 -20
-19 27 9 -11 -16 -20 -20 -20 -19 -17 7 -20 -16 -20 -20 19 27 28 -20 -17 -3 -20 -20 -20 -20 -20 -20 -20 -20 -20 -20 -11 -19 -12 13 2 -14 6 -1 7 21 5 -20 -3
8 15 29 30 39 -0 -13 -20 -20 -20 -20 -20 -9 -5 -10 30 19 -19 1 -20 -20 -14 -20 -20 -20 -20 -20 -20 -20 -20 -20 -20 -20 -4 22 13 10 7 -20 23 8 6 -20 1
7 15 18 11 18 33 8 -20 -20 -20 -20 -16 26 8 2 1 24 26 3 -20 -20 -20 -20 -20 -20 -20 -20 -20 -20 -20 -20 -20 -20 -3 15 15 8 -7 3 15 19 -9 -12 10
-0 -5 -10 -20 9 13 18 25 -17 -19 1 2 9 -4 -3 39 24 25 -5 -20 -20 -20 -20 -20 -20 -20 -20 -20 -20 -20 -20 -20 -20 9 5 15 13 15 23 25 22 -20 8 10
6 -8 -14 9 -1 -20 -4 -1 16 15 14 23 16 27 36 7 1 -20 -20 -20 -20 -20 -20 -20 -9 -20 -20 -20 -20 -20 -20 -20 -20 13 14 18 14 17 26 14 17 -2 10 10
3 1 1 1 -20 -15 24 -20 -8 -20 -20 -20 -9 -9 -20 -19 -20 -20 -20 -20 -20 -20 -20 -20 -11 -20 -20 -20 -20 -20 -20 -20 -1 27 22 29 16 22 26 26 22 24 11 8
-20 8 11 9 -7 -6 -2 -20 -14 -3 11 -8 4 -20 -20 -20 -20 -20 -18 -20 -20 -20 -20 -5 -5 -5 -10 -13 -17 -18 -20 -10 3 26 24 16 24 21 26 28 12 20 5 16
0 -20 5 -11 14 11 -1 -4 -20 -20 15 37 14 -15 -12 -20 2 -2 -20 -20 -20 -16 -11 -3 -3 -4 -20 -15 -5 -3 3 16 26 38 31 24 22 24 22 24 20 9 15 5
-15 18 10 6 15 15 -6 -20 -20 7 16 27 16 23 -20 -20 -20 -20 -20 -20 -20 -14 -14 -6 -19 -20 -8 1 1 13 26 23 30 37 36 32 28 27 25 16 7 -15 7 17
10 15 10 4 23 24 23 -13 -12 24 14 20 33 13 -20 -3 -20 -20 -20 -20 -20 -19 -20 -20 -20 -20 -11 5 10 21 23 32 34 33 34 35 35 38 25 11 20 27 20 16
11 18 -1 21 16 24 2 11 9 6 25 -10 5 -17 -20 -20 -20 -20 -20 -20 -20 -3 -5 -10 -6 -19 -0 10 17 18 23 35 34 28 31 30 40 44 41 34 32 35 23 20
23 -19 4 -6 -4 -3 0 6 13 1 18 6 -20 -20 -20 -20 -20 -20 -20 -20 -20 -20 -6 -8 -10 5 12 16 18 19 34 37 32 26 29 32 40 37 38 42 37 40 33 23
-10 -7 -20 -1 -8 -6 -13 7 20 9 11 -11 -20 -20 -20 -20 -20 -20 -20 -20 -20 -20 -20 -15 -10 -12 -8 9 17 15 16 25 24 28 25 28 27 35 37 40 40 41 40 38
-12 -1 -4 -20 -5 8 1 8 12 12 10 -0 -18 -20 -17 -18 -20 -20 -20 -20 -20 -20 -20 -20 -17 -14 -9 -14 -15 -5 8 11 16 20 22 21 19 20 27 29 27 29 28 23

GFSCGP_prec_radar_120.txt.gz
Reflectivity
-20 -20 -20 -20 -20 -20 -20 -20 -20 -20 -20 -20 -20 -20 -20 -20 -20 -20 -20 -20 -20 -20 -20 -20 -20 -20 -20 -20 -20 -20 -20 -20 -20 6 13 -1 -20 -20 -20 -20 -20 -20 -20 -20
-20 -20 -20 -20 -20 -20 -20 -20 -20 -20 -20 -20 -20 -20 -20 -20 -20 -20 -20 -20 -20 -20 -20 -19 -20 -20 -20 -20 -20 -20 -20 -20 -20 -20 -12 -20 -13 -7 -5 -11 -20 -20 -20 -20
-20 -20 -20 -20 -20 -2 -11 -20 -20 -8 -20 -20 -14 -5 -20 -20 -20 -20 -20 -20 -20 -20 -20 -17 -20 -20 -20 -20 -20 -11 -20 -20 -20 -20 -20 -20 31 -4 -13 -17 -19 -20 -20 -20
-20 -20 -20 -20 -20 -9 21 -16 -20 -20 -20 8 -1 14 -20 -20 -20 -20 -20 -20 -20 -20 -20 -20 -20 -20 7 5 -20 -18 3 -20 -20 -16 -11 16 -13 -20 -20 -20 -20 -20 -20 -20
-20 -20 -20 -20 -20 -20 5 0 -20 -20 -20 20 -12 19 -20 -20 -20 -20 -20 -20 -20 -20 -20 5 7 -16 -20 -20 -20 -20 -20 -20 -20 -20 -20 -20 -9 -6 -20 -20 -20 -13 -20 -20
-20 -20 -20 -16 -20 -20 -20 -20 -11 -14 16 22 -1 17 -20 -20 -20 -20 -20 -20 -20 -20 -10 7 -4 -20 -20 -20 -20 -20 -20 -20 -20 1 -20 -20 -20 -20 -12 -12 -20 -13 -20 13
-20 -17 6 -2 14 -17 11 15 15 18 15 13 -20 1 -20 -20 -20 -19 -4 -18 15 10 7 -5 -20 -20 -20 -20 -14 -14 -20 -20 -20 -20 -4 -20 -20 -20 -20 -3 -7 15 9 -15
-20 -16 -18 -18 31 21 -19 -18 -20 -11 16 5 23 -4 -20 -20 6 -20 -18 3 22 30 20 -18 -20 -20 -20 -20 -20 -20 -20 -20 -8 -13 -5 -20 -20 -20 -20 -20 -20 -18 10 13
7 -6 2 5 -2 -20 -20 -20 -4 14 24 17 -20 -20 -20 -20 -20 -20 -20 -11 8 1 -4 -18 -20 -20 -20 -20 -20 -20 -20 -20 -16 4 5 -19 -20 -20 -20 -20 -6 -20 -20 -20
-5 -8 -3 -20 -12 -17 -20 -20 -11 9 13 16 24 -13 4 -16 -20 -20 -20 -20 -20 -20 -20 -20 -20 -14 -4 -20 -17 -20 -20 -20 -19 -12 -20 -10 -20 -20 -20 -20 -20 -20 -20 -20
-18 8 -7 -5 34 -13 6 -9 -4 4 -7 -7 11 7 -14 27 -1 -20 -20 -20 -20 -20 -20 -20 -20 -20 -20 -20 -20 -18 -19 -20 -20 -20 -20 -20 -20 -20 -20 -20 -20 -20 -9 8
-20 20 2 -6 21 17 10 19 7 12 23 21 15 24 23 23 -1 -20 -20 -20 -20 7 7 -20 -20 -20 -20 5 -18 -20 -6 -19 -20 -20 -20 -20 -20 -20 -20 -20 -20 -20 -5 -20
-20 -18 3 -19 -20 -15 -11 25 19 28 26 15 4 31 36 26 -17 -4 43 13 9 11 5 13 11 -5 -6 -7 -20 -20 -20 -20 -5 -20 -20 -20 -20 -20 -20 -20 -20 -2 15 -20
-20 -20 -7 6 -7 -1 16 -20 6 23 10 2 6 39 25 41 41 21 21 15 22 30 33 13 20 7 -20 -20 -20 -20 -20 -20 -20 -20 -20 -20 -20 -20 -20 -20 11 23 14 17
-20 -20 -20 -20 -13 28 8 -9 -20 -6 8 10 19 28 32 38 27 32 31 33 25 32 17 -20 -20 -20 -20 -20 -20 -20 -20 -20 -20 -20 -20 -20 -20 -20 -20 -20 -18 4 20 4
-20 -20 -20 -20 -12 32 22 12 -20 -20 7 0 11 14 40 30 27 15 35 37 18 3 -20 -20 -20 -20 -20 -20 -20 -20 -20 -20 -20 -20 -20 -20 -20 -20 -20 -20 -20 12 14 9
-20 -20 -20 -20 -9 16 16 31 9 2 2 2 12 13 31 25 -9 -6 1 8 11 -18 -20 -20 -20 -20 -20 -20 -20 -20 -20 -20 -20 -20 -20 -20 -20 -20 -20 -18 -8 19 13 17
-20 -20 -20 -20 -1 19 30 33 29 28 24 37 29 36 30 28 0 -19 -6 -10 -18 -20 -20 -20 -20 -20 -20 -20 -20 -20 -20 -20 -20 -20 -20 -20 -20 -20 -20 9 4 11 12 6
-20 -20 -20 -20 -20 26 23 10 12 10 13 26 30 33 24 11 1 -20 -13 -16 -20 -20 -20 -16 -16 -20 -20 -20 -20 -20 -20 -20 -20 -20 -20 -20 -20 -20 -14 8 16 14 6 11
-20 -20 -20 -20 -20 -19 -19 -20 -20 -15 4 3 -6 13 19 5 -11 -8 -20 -20 -20 -20 -20 -20 -20 -20 -20 -20 -20 -20 -20 -20 -20 -20 -20 -20 -20 -18 2 23 14 17 28 -5
-19 -20 -20 -20 -20 -14 -13 -20 -20 -20 12 10 5 9 -20 -14 -20 -20 -20 -20 -20 -20 -20 -20 -20 -20 -20 -20 -20 -20 -20 -20 -20 -20 -20 -20 -20 -18 18 26 26 24 19 4
-20 -20 -20 -20 -20 -20 -20 -20 -16 20 -17 -13 -9 -10 -20 -15 -20 -20 -20 -20 -20 -20 -20 -20 -20 -20 -20 -20 -20 -20 -20 -20 -15 -20 -20 -20 -20 -14 29 24 38 23 36 42
-8 -8 -20 -3 -20 2 -5 8 6 15 2 -19 -20 -20 -20 -20 -20 -20 -20 -20 -20 -20 -20 -20 -20 -20 -20 -20 -20 -20 -19 -4 -20 -20 -20 -2 -7 0 11 30 26 35 31 35
-13 -20 -20 -11 -0 -6 -20 -20 -0 5 -14 -10 10 -18 -20 -20 -20 -20 -20 -20 -20 -20 -20 -20 -20 -20 -20 -20 -20 -20 -20 -17 -20 -20 -19 7 6 14 23 25 25 30 33 35
-14 -20 -20 -20 -1 -20 -20 -2 -20 -20 -20 -20 -20 -16 -17 -20 -20 -20 -20 -20 -20 -20 -20 -20 -20 -20 -20 -20 -20 -20 -20 -20 -20 -20 -14 1 16 20 25 27 29 32 25 28
-20 -20 -20 -20 -20 -17 -20 -13 -20 -20 -20 -20 -20 -20 -20 -20 -20 -20 -20 -20 -20 -20 -20 -20 -20 -20 -20 -20 -20 -20 -20 -20 -20 -20 -16 -0 8 19 22 28 28 32 33 32

GFSCGP_prec_radar_123.txt.gz
Reflectivity
-20 -20 -20 -20 -20 -20 -20 -20 -20 -20 -20 -20 -20 -20 -20 -20 -20 -20 -20 -20 -20 -20 -20 -20 -20 -20 -20 -20 -20 -20 -20 -20 -20 -20 -20 -20 -20 -20 -20 -20 -20 -20 -20 -20
-20 -20 -20 -20 -20 -20 -20 -20 -20 -20 -20 -20 -20 -20 -20 -20 -20 -20 -20 -20 -20 -20 -20 -20 -20 -20 -20 -20 -20 -20 -20 -20 -20 -20 -20 -20 -20 -20 -20 -20 -20 -20 -20 -20
-20 -20 -20 -20 -20 -20 -20 -20 -20 -20 -20 -20 -20 -20 -20 -20 -20 -20 -20 -20 -20 -20 -20 -1 14 -8 -20 -20 -20 -20 -20 -20 -20 -20 -20 -20 -20 -20 -19 -10 8 -1 -14 -11
-20 -20 -20 -20 -20 -20 -20 -20 -3 13 -19 -13 -20 -20 -20 -20 -20 -20 -20 -20 -20 -20 -20 -6 18 9 -5 -18 -20 -20 -20 -20 -20 -20 -20 -20 -20 -18 -10 27 19 2 -12 -18
-20 -20 -20 -20 -20 -20 -11 -20 2 -20 -20 -15 -20 15 -20 -20 -18 -20 -20 -20 -20 -20 -20 -17 7 0 -16 -20 -20 -20 -20 -20 -20 -20 -20 18 -13 30 34 12 4 -20 -20 -20
-20 -20 -20 -20 -20 -20 -20 -5 -20 -20 -19 12 -20 9 -20 -18 -20 -20 -20 -9 -20 -20 -20 -20 -15 -3 -20 -20 -20 -20 -20 -20 -20 -0 -20 10 10 28 29 30 -3 -13 -20 -12
-20 -20 -20 -20 -20 -20 -20 -20 -20 -20 -4 -20 -20 -1 -20 4 5 -15 -2 -15 -20 -20 -20 -20 -20 -16 -20 -20 -20 -20 16 3 8 13 5 5 11 22 1 -17 -20 -12 2 -20
-20 -20 -20 -20 -20 -20 -15 -20 -20 -7 8 15 -20 -19 -17 -6 18 20 -13 -20 -20 -20 -20 -20 -20 -20 -10 -20 -20 -20 -20 -20 -20 -20 -20 -20 -20 -20 -3 9 -4 -8 -20 -20
-0 -20 -20 -20 -20 -20 -20 13 -11 5 14 17 -20 14 33 -18 27 6 23 3 -20 12 17 19 20 24 13 -20 -20 -20 -20 -20 -20 -20 -20 -20 -20 -20 -20 -20 -20 -19 -5 -4
-20 -6 -20 -20 -20 -20 -20 -17 -10 9 27 16 -4 7 17 17 12 -10 -2 15 3 1 -2 -19 -7 -11 6 -18 -20 -20 -20 -20 -18 -16 -18 -20 -20 -20 -20 -20 -20 -20 -20 -0
-20 10 -20 -20 17 -20 -20 -9 6 27 9 16 5 -8 31 27 1 -5 -16 -20 -20 24 17 8 -6 29 15 -19 -14 -10 0 22 22 3 1 -20 -20 -20 -20 -20 -20 -20 -20 -20
-20 -20 -1 -20 -1 8 -20 18 -8 -10 -0 17 22 28 41 25 16 -20 -20 -20 -20 -20 -18 7 -17 1 27 27 32 29 21 10 -20 -20 -20 -20 -20 -20 -20 -20 -20 -20 -20 -20
-20 -20 -20 -20 -20 -20 -20 -19 28 7 5 14 24 26 36 39 23 17 13 13 14 1 -8 -6 13 20 20 2 -16 -20 -20 -20 -20 -20 -20 -20 -20 -20 -20 -20 -20 -20 -8 -2
-20 -20 -20 -17 -8 20 11 -20 -16 -14 3 13 22 32 37 37 33 40 35 36 21 25 32 26 20 8 -19 -20 -20 -20 -20 -20 -20 -20 -20 -20 -20 -19 -20 -20 -20 -20 -16 4
-20 -20 -20 -20 -9 21 21 22 8 5 -13 3 32 27 29 36 34 31 37 33 38 36 31 27 29 30 33 17 5 -15 -20 -20 -20 -20 -20 -20 -20 -5 -20 -20 -20 -20 -20 -20
-20 -20 -20 -20 -5 11 -5 -20 -1 -20 18 12 21 14 30 16 16 23 18 30 33 26 24 29 21 -8 -20 4 2 -16 -18 -20 -20 -20 -20 -20 -20 -20 -20 -20 -20 -20 -20 -20
-20 -20 -20 -20 -18 31 -1 6 22 18 4 19 15 22 37 11 -8 4 2 2 15 19 12 7 -14 -9 -20 -20 -20 -20 -20 -20 -20 -20 -20 -20 -20 -20 -20 -20 -20 -20 -20 -20
-20 -20 -20 -20 2 5 18 31 31 24 6 26 30 31 27 3 -13 -2 -12 -13 -19 4 15 2 -20 -20 -20 -20 -20 -20 -20 -20 -20 -20 -20 -20 -20 -20 -20 -20 -20 -20 -20 -13
-20 -20 -20 -20 -13 -7 -16 -13 10 10 3 4 5 18 10 0 -16 -20 -20 -17 -20 -20 -20 -20 -20 -20 -20 -20 -20 -20 -20 -20 -20 -20 -20 -20 -20 -20 -20 -20 -20 -20 -1 -19
-20 -20 -20 -20 -8 -20 -20 -20 -14 -3 7 1 -1 -2 -12 -20 -20 -20 -20 -20 -20 -20 -20 -20 -20 -20 -20 -20 -20 -20 -20 -20 -20 -20 -20 -20 -20 -20 -20 -20 -20 -18 -8 1
-20 -20 -20 -20 -4 -20 -4 -20 -20 -20 -3 -7 5 5 -20 -20 1 -10 -20 -20 -20 -20 -20 -20 -20 -20 -20 -20 -20 -20 -20 -20 -5 -20 -20 -20 -20 -20 -20 -20 -20 -12 17 15
-15 -20 -20 -20 -20 -20 -19 -20 -15 18 -7 -18 -20 -8 -20 -20 -20 -20 -20 -20 -20 -20 -20 -20 -20 -20 -20 -20 -20 -20 -20 -20 -14 -20 -20 -20 -20 -20 -20 -20 -20 10 -6 18
-18 -19 -20 -4 -20 -13 -3 5 9 1 3 -1 -19 -20 -20 -20 -20 -20 -20 -20 -20 -20 -20 -20 -20 -20 -20 -20 -20 -20 -20 -20 -20 -20 -20 -20 -20 -20 -20 -20 -16 8 13 13
-20 -20 -20 -18 -20 -20 -20 -20 -12 -3 -20 -20 1 -20 -20 -20 -20 -20 -20 -20 -20 -20 -20 -20 -20 -20 -20 -20 -20 -20 -20 -20 -20 -20 -20 -20 -20 -20 -20 -19 -13 11 19 18
-19 -20 -20 -20 -17 -20 -20 5 -20 -20 -20 -20 -20 -20 -20 -20 -20 -20 -20 -20 -20 -20 -20 -20 -20 -20 -20 -20 -20 -20 -20 -20 -20 -20 -20 -20 -20 -16 -13 7 18 19 25 25
-20 -20 -20 -20 -20 -20 -3 -19 -20 -20 -20 -20 -12 -20 -20 -20 -20 -20 -20 -20 -20 -20 -20 -20 -20 -20 -20 -20 -20 -20 -20 -20 -20 -20 -20 -20 -17 -5 6 8 18 25 26 28

GFSCGP_prec_radar_126.txt.gz
Reflectivity
-20 -20 -20 -20 -20 -20 -20 -20 -20 -20 -20 -20 -20 -20 -20 -20 -20 -20 -20 -20 -20 -20 -20 -20 -20 -20 -20 -20 -20 -20 -20 -20 -20 -20 -20 -20 -20 -20 -20 -20 -20 -20 -20 -20
-20 -20 -20 -20 -20 -20 -20 -20 -20 -20 -20 -20 -20 -20 -20 -20 -20 -20 -20 -20 -20 -20 -20 -20 -20 -20 -20 -20 -20 -20 -20 -20 -20 -20 -20 -20 -20 -20 -20 -20 -20 -20 -20 -20
-20 -20 -20 -20 -20 -20 -20 -20 -20 -20 -20 -20 -20 -20 -20 -20 -20 -20 -20 -20 -20 -20 -20 -20 -20 -20 -20 -20 -20 -20 -20 -20 -20 -20 -20 -20 -20 -20 -20 -20 -20 -20 -20 -20
-20 -20 -20 -20 -20 -20 -20 -20 -20 -20 -4 3 -20 -7 -20 -20 -20 -20 -20 -20 -20 -20 -20 -20 -20 -20 -20 -20 -20 -20 -20 -20 -20 -20 -20 -20 -20 -20 -20 -20 -20 -20 -20 -20
-20 -20 -20 -20 -20 -20 -20 -20 -20 -20 3 -20 -20 -6 -20 -20 -20 -19 -20 -20 -20 -20 -20 -20 -20 1 10 9 -17 -20 -20 -20 -20 -20 -20 -20 -20 -20 -19 -19 -15 6 32 33
-20 -20 -20 -20 -20 -20 -20 -20 -20 -20 -20 -20 -15 -15 -20 -4 -1 14 13 -20 -20 -20 -20 -20 -20 4 25 0 -20 -20 -20 -20 -20 -20 -20 -20 -20 -20 -20 -19 -9 26 37 32
-20 -20 -20 -20 -20 -20 -20 -20 -20 -20 -20 -20 1 10 -20 -20 9 11 7 16 -20 -20 -20 -20 -20 -20 -20 -20 -20 -20 -20 -20 -20 -20 11 -3 -3 -2 -10 -10 13 8 29 26
-20 -20 -20 -20 -20 -6 -20 -20 -20 -20 -17 -20 -2 1 0 25 32 32 -13 21 16 -1 -20 -20 -20 -20 -20 -20 -20 -20 -19 -15 2 14 21 -1 -20 13 22 -2 13 7 34 21
-20 -20 -20 -20 -20 -20 -13 -20 -20 -18 7 15 -3 -20 23 20 7 40 20 13 28 22 22 20 8 18 12 -1 8 2 11 14 6 8 6 5 11 21 2 -12 -17 -20 -15 -14
-20 -20 -20 -20 -20 -15 -20 -19 -14 -20 -3 22 11 20 12 22 10 21 37 13 19 20 23 7 10 -20 9 15 10 14 2 -4 -20 -5 6 -6 -12 -9 -18 -20 -20 -20 -20 -20
-20 -13 -20 -20 -19 -20 -20 8 7 10 18 21 0 11 33 39 30 2 14 36 18 2 24 16 18 10 -3 20 16 8 -12 -10 -11 -20 -20 -20 -20 -20 -20 -20 -20 -20 -20 -20
-20 -20 -1 -20 -20 -20 5 5 -11 23 11 -6 11 27 36 33 38 39 23 18 16 21 24 21 27 6 6 -18 2 31 18 -20 -20 -11 -20 -20 -20 -20 -20 -20 -20 -20 -20 -20
-20 -20 -20 -20 -20 -20 -20 -20 10 30 10 15 20 20 37 35 32 29 40 39 34 12 5 29 31 26 -16 3 11 -5 -10 -14 -5 9 5 4 -12 -20 -20 -20 -20 -20 -20 -20
-20 -20 -20 -20 -20 20 4 12 4 -20 -19 2 26 20 25 28 26 28 27 29 28 28 28 24 16 15 -20 3 11 14 14 -3 3 -15 -16 -20 -20 -20 -20 -20 -20 -20 -20 -20
-20 -20 -20 -20 -20 26 15 1 13 3 -15 11 24 20 21 24 29 29 31 34 30 30 36 25 24 26 27 14 -12 -17 -20 -20 -20 -20 -20 -20 -20 -20 -20 -20 -20 -20 -20 -20
-20 -20 -20 -20 -20 28 16 10 8 1 -11 27 25 12 35 37 33 19 17 25 30 30 27 27 24 25 24 16 20 19 5 -20 -20 -20 -20 -20 -20 -20 -20 -20 -20 -20 -20 -20
-20 -20 -20 -20 -20 19 11 5 15 12 7 10 3 13 11 -1 -10 -11 -5 14 23 24 24 18 14 13 18 18 2 -15 -20 -20 -20 -20 -20 -20 -20 -20 -20 -20 -20 -20 -20 -20
-20 -20 -20 -20 9 1 6 1 24 12 13 16 22 14 -11 -15 -3 -20 -20 1 9 12 3 17 22 9 4 -11 -13 -20 -20 -20 -20 -20 -20 -20 -20 -20 -20 -20 -20 -20 -20 -20
-20 -20 -20 -20 -19 -20 -20 -20 0 -5 -2 7 4 -13 4 24 2 -20 -19 -13 -2 -5 -6 -11 -14 1 -5 -20 -20 -20 -20 -20 -20 -20 -20 -20 -20 -20 -20 -20 -20 -20 -20 -20
-20 -20 -20 -20 4 -20 -20 -20 -15 10 -10 -6 3 -19 -20 -20 -20 -20 -20 -20 -20 -20 -20 -20 -20 -20 -20 -20 -20 -20 -20 -20 -20 -20 -20 -20 -20 -20 -20 -20 -20 -20 -20 -20
-20 -20 -20 -20 -17 -20 -20 -20 -18 -10 -13 -12 -20 -16 -20 -17 -11 -6 -16 -20 -20 -20 -20 -20 -20 -20 -20 -20 -6 -20 -20 -20 -20 -20 -20 -20 -20 -20 -20 -20 -20 -20 -20 -20
-20 -13 -20 -20 -20 -20 -20 -20 -17 9 9 -20 -20 -18 -20 -20 -20 -20 -20 -20 -20 -20 -20 -20 -20 -20 -20 -20 -20 -20 5 -20 -20 -20 -20 -20 -20 -20 -20 -20 -20 -20 -20 -20
-20 -20 -20 -18 -20 -20 -5 2 7 5 4 -3 -20 -20 -20 -20 -20 -20 -20 -20 -20 -20 -20 -20 -20 -20 -20 -20 -20 -20 -20 -20 -20 -20 -20 -20 -20 -20 -20 -20 -20 -20 -20 -9
-20 -20 -20 -20 -7 -20 -20 -20 -20 0 -4 -20 -17 -20 -20 -20 -20 -20 -20 -20 -20 -20 -20 -20 -20 -20 -20 -20 -20 -20 -20 -20 -20 -20 -20 -20 -20 -20 -20 -20 -20 -20 -18 -18
-20 -20 -20 -20 -20 -19 -20 -17 -20 -20 -20 -20 -20 -20 -20 -20 -20 -20 -20 -20 -20 -20 -20 -20 -20 -20 -20 -20 -20 -20 -20 -20 -20 -20 -20 -20 -20 -20 -20 -17 -9 -16 -2 7
-20 -20 -20 -20 -20 -20 -20 -2 -5 -20 -20 -20 -20 -20 -20 -20 -20 -20 -20 -20 -20 -20 -20 -20 -20 -20 -20 -20 -20 -20 -20 -20 -20 -20 -20 -20 -20 -20 -20 -20 -20 -10 8 8

GFSCGP_prec_radar_129.txt.gz
Reflectivity
-20 -20 -20 -20 -20 -20 -20 -20 -20 -20 -20 -20 -20 -20 -20 -20 -20 -20 -20 -20 -20 -20 -20 -20 -20 -20 -20 -20 -20 -20 -20 -20 -20 -20 -20 -20 -20 -4 -1 -20 -20 -2 -20 -20
-20 -20 -20 -20 -20 -20 -20 -20 -20 -20 -20 -20 -20 -20 -20 -20 -20 -20 -20 -20 -20 -20 -20 -20 -20 -20 -20 -20 -20 -20 -20 -20 -20 -20 -20 -20 -20 -20 -20 -18 -20 -20 -20 -15
-20 -20 -20 -20 -20 -20 -20 -20 -20 -20 -20 -20 -20 -20 -20 -20 -20 -20 -20 -20 -20 -20 -20 -20 -20 -20 -20 -20 -20 -20 -20 -20 -20 -20 -20 -20 -10 -20 -3 -12 -20 -20 -20 -20
-20 -20 -20 -20 -20 -20 -20 -20 -20 -20 -20 -20 -16 -17 -20 -20 -20 -20 -20 -20 -20 -20 -20 -20 -20 -20 -20 -20 -20 -20 -20 -20 -20 -20 -20 -20 -20 -20 -20 -20 -5 -20 -4 -20
-20 -20 -20 -20 -20 -20 -20 -20 -20 -20 -18 -15 -20 -20 -20 -20 1 1 18 -19 -20 -20 -20 -20 -20 -20 -20 -20 -20 -20 -20 -20 -14 -3 -20 -20 -20 -20 -20 -19 -8 -6 1 -20
-20 -20 -20 -20 -20 -20 -20 -20 -20 -20 -3 -16 -20 -20 -20 -18 33 20 19 8 7 -20 -20 -20 -20 -20 -20 -20 -16 -10 -20 -20 -20 -20 11 -2 1 -17 -20 -3 -16 18 -20 -15
-20 -20 -20 -20 -20 -20 -20 -20 -20 -20 -13 -20 -20 -20 -20 22 33 35 24 19 28 -20 -20 -20 -20 -20 -20 -20 -3 7 -15 -20 -20 -20 15 -20 -20 -20 -20 -5 -0 5 7 -18
-20 -20 -20 -20 -20 -20 -20 2 2 -20 -20 -20 -20 -20 -12 9 38 39 35 38 27 22 -13 -20 -20 -20 13 19 4 10 -19 -20 -20 -20 -13 -20 -20 -20 20 -18 -20 -19 17 -20
-20 -20 -20 -20 -20 -20 21 11 -9 -1 -20 -3 -20 -20 -20 -19 11 37 36 36 38 28 18 -9 24 15 16 -18 -20 -20 -20 -20 -20 -20 -20 -20 8 -19 -20 20 -20 14 8 -4
-20 -20 -20 -20 -15 -12 -20 -18 1 -6 -19 -20 -16 8 -10 1 -8 31 37 38 40 32 22 23 21 13 24 10 -5 29 9 13 -20 -17 -11 -5 -20 -20 -7 -20 -20 -20 -20 -20
-20 -20 -20 -20 -20 -20 -20 -14 8 -3 -12 10 4 20 12 13 18 23 28 32 30 36 25 2 19 21 -3 -16 -20 -15 26 23 2 -5 -19 -14 19 -9 -20 -20 -20 -12 -2 4
-20 -20 -20 -20 -20 -20 -20 -16 8 9 9 -1 10 25 29 26 29 28 30 35 36 34 32 17 -2 -20 -6 -20 -20 -20 -20 -19 4 10 -10 16 10 0 26 8 -20 -19 -20 -20
-20 -20 -20 -20 -20 -20 -20 -12 -0 17 8 15 18 7 35 31 14 23 26 28 33 38 37 33 28 28 22 14 -0 -13 -13 -20 -20 -20 -20 -20 -20 -20 -18 -12 -20 -20 -20 -20
-20 -20 -20 -20 -20 -18 -9 -20 -17 -10 10 14 11 16 6 16 18 14 11 19 27 27 22 31 34 37 37 29 30 38 25 18 18 18 23 28 1 -20 -19 -8 -20 -19 -19 -20
-20 -20 -20 -20 -20 3 16 -18 -4 17 4 -16 10 -2 6 6 12 19 14 12 13 11 25 28 26 23 29 27 36 19 11 11 27 31 25 -16 -20 -20 -20 6 -1 -20 -20 -20
-20 -20 -20 -20 -20 -9 10 12 -18 20 2 9 13 -6 8 1 6 -2 10 6 7 1 1 2 -6 17 12 12 5 3 -16 7 6 -20 -20 -3 -6 -20 -20 -20 -20 -20 -20 -20
-20 -20 -20 -20 -14 21 24 4 9 3 9 15 8 13 14 -20 -18 -20 -20 5 12 10 17 14 9 7 13 -1 -11 -13 -17 -10 -0 4 -20 -20 -20 -20 -20 -20 -20 -20 -20 -20
-20 -20 -20 -20 -16 11 12 -14 13 14 10 7 -1 -8 13 -19 -7 -20 -20 -20 -8 8 12 13 12 10 10 11 12 12 8 0 3 3 -20 -20 -20 -20 -20 -20 -20 -20 -20 -20
-20 -20 -16 1 -12 -5 -12 -20 -9 -5 2 -5 10 -17 -17 17 -6 -20 -20 -20 -20 -20 -6 0 -3 -4 -12 11 -2 -8 -18 -6 -9 -19 -20 -20 -20 -20 -20 -20 -20 -20 -20 -20
-20 -20 -20 -20 -4 -13 -10 -20 -20 8 -3 4 -12 8 -2 -20 -20 -2 -1 -20 -20 -20 -20 -20 -20 -20 -20 -11 -7 -15 -20 -20 -20 -20 -20 -20 -20 -20 -20 -19 -20 -20 -20 -20
-20 -20 -20 -20 -7 -13 -20 -20 -18 -1 0 2 -10 -11 -1 -4 1 2 -9 -20 -20 -20 -20 -20 -20 -20 -20 -20 -1 -20 -20 -20 3 -20 -20 -20 -20 -20 -20 -11 -20 -20 -20 -20
-20 -20 -20 -20 -20 -20 -20 -20 -20 0 12 -2 -0 -6 0 -1 -12 -20 -20 -20 -20 -20 -20 -20 -20 -20 -20 -20 -9 0 -10 -12 -3 -20 -20 -20 -20 -18 -20 -20 -19 -20 -13 -20
-6 -20 -20 -19 -20 -4 -9 -20 -10 -3 -3 -17 -20 -19 -3 -20 -20 -20 -20 -20 -20 -20 -20 -20 -20 -20 -20 -20 0 -20 -5 -14 -20 -20 -20 -20 -20 -20 -1 -20 -20 -20 -20 -20
-9 -20 -19 -20 -16 -20 -20 -20 -20 -12 -20 -20 -20 -20 -20 -20 -20 -20 -20 -20 -20 -20 -20 -20 -20 -20 -20 -20 -19 -20 -20 -19 -20 -20 -20 -20 -20 -20 -13 2 3 4 -20 -16
-20 -20 -20 -14 -11 -20 -20 -20 -20 -2 -9 -13 -20 -20 -20 -20 -20 -20 -20 -20 -20 -20 -20 -20 -20 -20 -20 -20 -20 -20 -7 -7 -20 -20 -20 -20 -20 -20 -20 -12 5 6 4 10
-20 -20 -20 -20 -20 -20 -14 -14 -18 -12 -20 -20 -20 -20 -20 -20 -20 -20 -20 -20 -20 -20 -20 -20 -20 -20 -20 -20 -20 -20 -19 -18 -20 -20 -20 -20 -20 -20 -20 -20 -20 -19 -10 0

GFSCGP_prec_radar_132.txt.gz
Reflectivity
-20 -20 -20 -20 -20 -20 -20 -20 -20 -20 -20 -20 -20 -20 -20 -20 -20 -20 -20 -20 -20 -20 -20 -20 -20 -20 -20 -20 -20 -20 -20 -20 -20 -20 -9 -20 -20 -20 -20 -20 -20 -20 -20 10
-20 -20 -20 -20 -20 -20 -20 -20 -20 -20 -20 -20 -20 -20 -20 -20 -20 -20 -20 -20 -20 -20 -20 -20 -20 -20 -20 -20 -20 -20 -20 -20 -20 -20 -20 -20 -20 -20 -20 -20 -20 -20 -20 -12
-20 -20 -20 -20 -20 -20 -20 -20 -20 -20 -20 -20 -20 -20 -20 -20 -20 -20 -20 -20 -20 -20 -20 -20 -20 -20 -20 -20 -20 -20 -20 -20 -20 -20 -20 -20 -20 -20 -20 -20 -20 -20 -20 -3
-20 -20 -20 -20 -20 -20 -20 -20 -20 -20 -20 -20 -20 -16 -20 -20 -20 -20 -20 -17 -20 -20 -20 -20 -20 -20 -20 -20 -20 -20 -20 -20 -20 -20 -20 -20 -20 -20 -20 -20 -20 -20 -20 -20
-20 -20 -20 -20 -20 -20 -20 -20 -20 -20 -20 -16 -20 -20 -20 -20 -12 -20 -20 -20 -20 0 6 -20 -20 -20 -20 -20 -20 -20 -20 -20 -20 -19 -20 -20 -20 -20 -8 -20 -20 -19 -16 -20
-20 -20 -20 -20 -20 -20 -20 -20 -20 -20 -20 -20 -20 -20 -20 -12 12 -20 -18 -16 -18 11 18 -13 -20 -20 -11 -20 -20 -20 -20 -20 -20 31 7 -9 -20 -20 -17 -6 3 8 9 4
-20 -20 -20 -20 -20 -20 -20 -4 -20 -20 -20 -20 -20 -20 -10 -20 -6 12 7 10 2 30 31 16 3 14 -13 -20 -8 0 -15 -8 -20 10 -12 -5 6 -2 5 9 -4 6 3 -3
-20 -20 -20 -20 -20 -20 -1 -18 -19 6 -20 -20 -20 -20 12 -20 -20 -1 13 6 18 32 34 29 27 27 19 2 -19 -8 5 18 -8 26 16 0 -20 34 -7 -1 -6 -1 -7 10
-20 -20 -20 -20 -20 -20 -8 14 -14 8 7 6 -20 5 11 -20 -20 -9 23 26 31 30 35 30 28 28 20 16 3 -6 12 9 27 32 18 28 30 31 11 -2 16 -12 -14 -19
-20 -20 -20 -20 -17 -20 -20 -19 10 21 12 3 -20 -5 4 -16 3 -4 1 21 28 34 34 33 32 27 16 16 13 25 26 20 23 7 29 21 -14 -20 -20 -14 -20 -20 -20 -20
-20 -20 -20 -20 -20 -18 -6 12 6 6 3 18 16 6 12 9 12 6 11 20 24 28 25 29 37 37 21 22 17 -15 28 27 10 24 20 -11 -20 -20 -20 -20 -20 12 -20 11
-20 -20 -20 -20 -20 -20 -19 2 9 13 16 14 11 18 11 10 18 11 12 25 24 33 28 25 31 31 30 20 11 11 22 27 13 -12 -20 -20 -20 -20 -20 -20 -20 -20 -20 -20
-20 -14 -20 -19 -13 -15 3 2 -8 4 11 16 11 8 15 24 23 21 9 10 23 26 25 28 23 22 10 6 9 25 21 19 37 19 -16 -20 -20 -20 -20 -17 -17 5 -18 7
-20 -20 -20 -20 -20 -20 8 -3 -16 -11 18 12 -2 3 2 3 8 1 5 10 12 17 20 28 27 28 25 21 22 7 8 9 20 26 13 10 9 9 -16 -20 4 -19 14 -1
-20 -20 -20 -18 -13 -2 10 -7 -20 -1 7 7 1 -2 7 4 5 10 18 16 11 9 12 17 21 22 25 32 31 34 23 23 29 28 7 15 4 -20 -20 -20 3 -18 -20 -20
-20 -12 -20 13 21 15 5 -19 -20 -20 7 2 12 -2 15 4 4 -20 -20 1 2 3 10 14 19 19 11 21 29 27 34 30 20 24 32 30 20 36 17 16 9 -20 -20 -20
-20 -5 9 12 -17 15 7 1 5 2 -1 5 -12 10 7 0 -20 -20 -20 -20 -18 5 -3 -20 1 5 5 2 -1 14 18 12 14 24 24 16 18 13 -13 1 7 -20 -20 -4
-20 1 3 -8 3 21 -1 12 11 -3 1 3 11 7 -1 -12 -20 -20 -20 -20 -20 -12 -13 5 -16 -2 2 -6 -4 2 -1 -20 -16 -13 -20 -3 -2 -16 -11 -18 -18 -20 -20 -20
-20 7 8 6 -13 3 3 -20 -8 -0 1 -7 -19 -15 -17 -20 -9 7 -20 -20 -20 -20 -20 -20 -12 7 -2 5 3 -2 5 -7 -19 -11 -20 -20 -5 5 -16 -20 -20 -20 -20 -20
-20 -20 -2 -1 -14 9 -4 -20 -20 -1 7 -17 -4 3 1 -20 -11 -7 -7 -20 -20 -20 -20 -20 -20 -20 -3 -7 -2 9 9 3 -18 3 -17 -20 -20 -20 -20 -20 -20 -20 -20 -20
-9 3 -2 -0 3 -14 -20 -20 -18 7 4 -2 -2 -3 1 -3 -2 -4 -20 -20 -20 -20 -20 -20 -20 -12 -3 3 3 -5 -1 3 2 3 -8 -14 -15 -20 -20 -20 -20 -20 -20 -20
-18 -9 -0 -20 -14 3 -20 -20 -17 -2 3 -14 -3 -12 -14 -11 -5 -20 -20 -20 -20 -20 -19 -20 -13 -10 -5 -13 -1 -20 -11 3 -2 -19 -8 -20 3 -2 -4 -5 -5 -12 -20 -11
-3 -3 3 -4 4 -18 -20 -4 3 -4 -19 -9 -5 -3 -0 -3 -20 -20 -20 -20 -20 -2 -4 -4 -3 -3 -20 -3 -19 -3 -1 -3 -2 -17 -4 2 3 6 5 4 5 2 1 -5
-20 -20 -13 -16 -3 -20 -20 -20 -2 -6 -5 -18 -19 -20 -20 -20 -20 -20 -20 -20 -20 -8 -5 -5 -5 -5 -4 -14 -17 -20 -18 -20 -19 -6 0 1 2 0 4 6 6 4 -18 -4
-4 -16 -6 3 -0 -15 -20 -20 -13 -20 -20 -20 -20 -20 -20 -20 -20 -20 -20 -20 -20 -20 -9 -15 -5 -4 -3 -7 -3 -13 -20 -20 -20 -20 -6 -9 -10 4 3 6 2 2 2 10
-20 -17 -6 -3 -20 -1 -1 -7 -20 -6 -20 -20 -20 -20 -20 -20 -20 -20 -20 -20 -20 -20 -20 -20 -2 -1 -1 -5 -6 -3 -2 -14 -18 -9 -7 -4 -5 -3 -2 0 2 -20 -20 -13